GFSWCAN_850_dewp_057.txt.gz
Dewpoint
-4 -3 -1 -0 0 -1 -1 -2 -2 -2 -2 -1 -1 -1 0 1 0 -0 0 0 0 0 1 -0 -0 1 -1 -2 0 -1 0 0 2 1 1 2 1 2 2 1 4 5 6 6 7 8 8 3 2 -0 0 -3 -3 -4
-3 -1 -0 0 -1 -1 -1 -1 -1 -1 -1 -0 -1 -2 -1 1 0 -0 0 0 -0 1 2 1 1 0 2 -1 -0 -2 -1 -1 1 2 2 2 1 2 1 2 0 6 4 6 5 5 4 1 4 4 3 4 1 1
-1 -0 0 0 -1 -1 -1 -0 0 -0 0 0 -0 -1 -1 -0 0 -0 0 0 0 0 2 2 1 0 1 1 1 3 1 -0 2 1 3 3 1 1 2 -0 -1 1 2 3 4 3 0 -2 -0 -3 2 3 3 2
-0 0 1 0 0 -0 0 0 0 -0 -0 0 -1 -1 0 -0 0 -0 0 1 -1 1 1 2 -0 -0 -0 -1 -2 1 3 1 0 2 3 4 4 0 -0 1 1 1 1 2 3 2 2 1 -1 -3 -2 2 1 1
0 0 1 0 -0 0 0 -0 0 -0 -1 -1 -0 -1 -1 -0 -0 0 0 0 1 -2 0 0 1 1 1 -2 -2 -2 3 2 2 3 2 3 2 2 3 2 1 -1 -2 3 5 3 1 3 1 1 -1 -1 -0 1
-0 0 0 0 -0 -0 0 0 0 1 0 -1 -0 -0 -1 0 1 1 1 1 1 -1 -0 1 -0 -1 0 -1 2 2 2 1 1 3 3 3 2 1 2 3 -1 -3 -4 -4 -4 -4 -1 -2 1 1 1 0 -0 -0
-0 1 0 -1 -0 0 0 0 0 0 0 0 -0 0 -0 0 0 0 0 0 -1 -4 -0 0 0 -1 -2 -1 1 2 2 2 1 2 4 3 3 3 1 2 3 4 4 3 3 2 3 2 3 2 1 1 0 0
0 1 -0 -1 -0 0 -0 -0 0 0 -0 -0 -0 -0 0 1 0 -0 -0 -2 -1 -2 -2 -1 -1 0 -1 -0 2 1 2 2 2 2 3 4 3 4 3 1 1 2 3 3 3 3 3 3 2 2 1 1 1 1
-0 0 0 -1 -0 -1 -0 -1 -0 -0 0 0 0 0 -2 -2 -0 1 1 -0 -1 -0 0 -0 0 2 1 2 1 1 1 1 2 2 3 3 3 1 -0 -0 -0 -0 1 2 3 3 3 3 3 2 1 1 1 1
-0 0 0 0 0 0 -0 0 -0 -0 -0 -0 -1 -2 -1 -1 -1 -0 0 0 1 1 0 -1 -0 1 1 1 2 1 2 0 3 2 3 3 0 -1 -2 -2 -2 -2 -0 1 2 2 2 2 2 2 1 1 1 1
-1 -1 -1 -0 -0 -0 -0 -0 -0 -0 -1 -2 -0 -1 -0 -0 -1 -1 -1 -0 0 0 -0 0 1 1 1 2 2 2 1 1 2 2 3 2 -1 -2 -3 -3 -3 -3 -2 0 1 1 1 2 2 1 1 1 1 0
-1 -1 -1 -1 -1 -1 -1 0 -3 -3 -1 -0 -2 -2 -2 -0 0 -0 0 0 -1 0 1 1 1 1 1 1 1 2 2 2 3 2 1 -1 -3 -3 -4 -4 -4 -4 -3 -2 -1 -1 -0 1 1 1 0 -0 -0 -1
-1 -2 -2 -2 -2 -1 -1 -1 -1 -0 -0 -1 -1 -0 0 -0 -0 -2 1 1 1 -1 -1 -0 1 1 1 0 0 1 2 2 1 1 -2 -3 -3 -4 -4 -5 -5 -5 -5 -5 -5 -4 -3 -3 -3 -3 -4 -4 -4 -4
-3 -3 -4 -4 -4 -3 -3 -4 -3 -3 -2 -2 -2 -3 -3 -4 -3 -3 -3 -2 -2 -2 -2 -2 0 1 0 1 0 3 1 1 1 -1 -4 -4 -5 -5 -5 -6 -7 -7 -7 -7 -7 -6 -6 -6 -6 -6 -6 -6 -6 -6
-4 -3 -3 -5 -6 -6 -6 -4 -5 -6 -7 -6 -6 -3 -4 -4 -6 -5 -5 -3 -3 -4 -3 -1 0 1 0 0 -1 1 -0 -3 -3 -5 -5 -5 -6 -6 -6 -7 -7 -8 -8 -8 -8 -8 -8 -8 -8 -8 -8 -8 -8 -8
-2 -3 -3 -2 -3 -3 -5 -5 -5 -7 -7 -8 -8 -6 -7 -6 -7 -6 -6 -5 -6 -4 -2 -1 1 -2 -2 -3 -5 -3 -4 -5 -6 -6 -7 -7 -7 -7 -7 -8 -8 -8 -9 -9 -9 -8 -8 -8 -9 -9 -8 -8 -9 -9
-1 -2 -3 -3 -5 -6 -6 -8 -10 -8 -7 -6 -6 -7 -7 -7 -6 -6 -6 -6 -4 -3 -2 -3 -4 -4 -4 -5 -5 -5 -6 -7 -8 -8 -9 -8 -9 -8 -8 -8 -8 -9 -9 -9 -9 -9 -9 -9 -9 -10 -10 -10 -10 -10
-2 -4 -3 -2 -2 -3 -8 -7 -8 -8 -7 -7 -7 -7 -7 -8 -8 -7 -6 -6 -4 -4 -5 -5 -9 -8 -8 -6 -6 -7 -8 -9 -9 -9 -9 -10 -9 -10 -10 -10 -10 -10 -10 -10 -10 -10 -10 -10 -10 -10 -11 -11 -11 -11
-4 -2 -2 -2 -3 -3 -5 -6 -8 -6 -6 -7 -7 -8 -8 -8 -9 -8 -7 -7 -8 -8 -9 -10 -10 -9 -9 -9 -9 -8 -9 -9 -10 -10 -10 -10 -10 -11 -11 -11 -11 -11 -11 -11 -11 -11 -11 -11 -11 -11 -11 -12 -12 -12
-1 -2 -2 -2 -2 -4 -4 -6 -6 -6 -5 -7 -8 -9 -10 -10 -10 -11 -11 -10 -10 -11 -10 -10 -9 -10 -10 -10 -10 -9 -9 -10 -11 -11 -11 -12 -12 -12 -12 -12 -12 -12 -12 -12 -12 -12 -13 -13 -13 -13 -12 -13 -13 -13
-5 -5 -6 -6 -5 -4 -3 -5 -5 -5 -5 -4 -6 -8 -9 -11 -12 -12 -12 -12 -12 -11 -10 -10 -10 -11 -10 -10 -10 -10 -10 -11 -11 -12 -12 -12 -12 -13 -13 -13 -13 -13 -14 -16 -15 -15 -16 -15 -15 -16 -17 -17 -16 -16
-4 -7 -10 -10 -8 -6 -6 -6 -5 -6 -7 -7 -8 -8 -8 -9 -11 -13 -13 -12 -11 -11 -11 -11 -11 -11 -11 -11 -11 -12 -12 -12 -12 -13 -13 -13 -14 -14 -14 -14 -16 -15 -15 -16 -18 -18 -17 -16 -17 -16 -16 -17 -18 -19
-8 -13 -10 -8 -8 -7 -6 -7 -7 -7 -6 -6 -8 -8 -8 -10 -11 -13 -11 -11 -10 -12 -12 -12 -12 -12 -12 -12 -12 -12 -12 -13 -14 -14 -15 -15 -15 -15 -15 -15 -15 -16 -16 -17 -17 -17 -18 -17 -18 -20 -19 -17 -18 -18
-13 -10 -7 -6 -6 -5 -6 -6 -7 -7 -8 -8 -9 -9 -9 -9 -12 -12 -11 -11 -11 -11 -10 -11 -12 -14 -14 -14 -14 -13 -13 -13 -13 -13 -14 -14 -16 -17 -20 -23 -19 -17 -17 -18 -18 -19 -19 -19 -19 -19 -21 -21 -19 -19
-11 -8 -6 -6 -5 -8 -9 -9 -8 -8 -9 -8 -10 -8 -9 -11 -11 -10 -11 -11 -11 -12 -12 -11 -12 -13 -14 -14 -14 -15 -15 -17 -16 -14 -14 -14 -15 -15 -16 -18 -21 -24 -20 -19 -18 -19 -20 -21 -20 -20 -20 -21 -21 -21
-8 -8 -7 -7 -7 -8 -7 -9 -9 -9 -10 -10 -9 -9 -10 -12 -13 -11 -10 -12 -13 -12 -12 -12 -14 -14 -14 -15 -16 -15 -15 -15 -19 -24 -27 -24 -19 -18 -17 -18 -20 -24 -24 -22 -20 -20 -20 -20 -21 -20 -21 -21 -22 -23
-9 -8 -8 -8 -8 -8 -8 -9 -10 -10 -10 -10 -10 -10 -13 -14 -13 -11 -12 -13 -14 -13 -13 -13 -14 -15 -16 -16 -18 -20 -20 -21 -25 -24 -21 -22 -25 -26 -25 -25 -26 -25 -25 -25 -24 -24 -23 -22 -22 -23 -23 -23 -23 -23
-9 -9 -9 -9 -10 -10 -11 -11 -12 -11 -11 -10 -12 -14 -14 -13 -12 -12 -13 -14 -15 -15 -14 -14 -14 -15 -16 -16 -16 -16 -17 -16 -18 -18 -18 -18 -19 -20 -25 -26 -25 -25 -25 -25 -25 -26 -26 -27 -27 -26 -26 -26 -24 -22
-9 -11 -13 -12 -12 -12 -11 -11 -12 -12 -12 -10 -14 -14 -14 -13 -14 -14 -14 -15 -15 -15 -16 -16 -16 -17 -17 -17 -18 -21 -25 -19 -18 -19 -17 -18 -18 -19 -25 -25 -26 -26 -25 -25 -23 -24 -25 -26 -25 -23 -23 -23 -23 -23
-9 -12 -12 -13 -14 -13 -12 -12 -11 -14 -15 -15 -15 -14 -14 -14 -14 -15 -15 -15 -14 -15 -15 -16 -16 -16 -16 -16 -17 -20 -26 -28 -28 -25 -21 -19 -21 -25 -26 -26 -27 -26 -26 -26 -26 -26 -26 -26 -25 -24 -22 -22 -22 -23
-10 -12 -13 -13 -12 -13 -14 -14 -14 -14 -14 -14 -15 -16 -16 -16 -15 -15 -15 -15 -15 -16 -16 -16 -16 -16 -17 -17 -17 -19 -23 -24 -28 -28 -28 -28 -27 -27 -27 -28 -28 -27 -27 -27 -26 -26 -26 -25 -25 -25 -25 -24 -24 -24
-10 -12 -13 -14 -12 -12 -12 -11 -11 -12 -12 -14 -14 -14 -14 -14 -15 -16 -16 -16 -16 -15 -16 -16 -16 -17 -18 -23 -27 -29 -28 -28 -28 -28 -28 -28 -28 -28 -28 -28 -28 -28 -27 -27 -27 -26 -26 -25 -24 -24 -25 -25 -25 -25
-11 -13 -13 -12 -11 -10 -10 -11 -12 -11 -12 -12 -13 -13 -14 -13 -14 -15 -16 -16 -15 -15 -16 -17 -17 -19 -26 -29 -29 -28 -28 -28 -28 -28 -28 -28 -28 -28 -28 -28 -28 -28 -27 -27 -27 -27 -26 -26 -26 -26 -26 -26 -27 -27

GFSWCAN_850_dewp_060.txt.gz
Dewpoint
-2 -2 -3 -3 -1 -0 -0 0 -0 -0 -0 -0 -0 -0 -0 -1 -2 -2 -1 -0 -0 -0 -0 2 -0 -1 -1 -2 -0 -2 -1 -0 2 2 2 1 1 3 3 2 3 3 4 5 6 7 7 4 4 4 3 3 4 3
-3 -2 -1 -0 0 0 0 -1 -1 -1 -2 -1 -1 -1 -1 0 0 -1 -0 -1 0 -0 -0 0 1 1 -1 -2 -2 -2 -1 -1 0 2 1 0 0 -0 1 2 -1 4 3 4 4 4 2 4 3 3 3 2 2 3
-1 -0 -0 -0 0 0 -0 -1 -1 -1 -1 -1 -1 -1 -1 -1 -1 -0 -0 -0 -0 0 0 -0 1 2 0 -1 1 -0 -1 -2 -0 -0 2 2 0 0 0 0 -2 -1 1 4 5 2 3 -1 0 1 -0 -1 -1 2
-0 -0 -0 0 0 -0 -0 -0 -1 -0 -0 0 -0 -1 -1 -1 -1 0 0 0 -0 -0 0 0 -2 2 0 -1 -1 0 1 0 -0 0 2 1 1 1 0 -0 -1 -3 2 2 3 1 1 0 0 1 0 -2 -1 -1
-0 -0 -0 -0 -0 -0 0 0 -0 0 0 -0 -0 0 -0 -1 -1 0 -0 0 0 -2 -0 1 1 -0 -1 -1 -2 1 -0 0 1 3 3 2 1 1 1 2 2 1 2 4 3 1 0 -0 -6 -4 -0 -2 -1 -1
-0 0 -1 -0 0 -0 1 0 -1 -1 -0 0 0 1 -1 -1 1 -0 1 0 0 -1 1 1 -0 2 1 -1 -1 -0 -1 -2 -0 3 2 2 3 0 1 2 3 3 2 3 3 3 1 1 2 2 3 2 0 1
-0 -1 -0 0 1 0 0 -0 -0 -1 -1 -1 -1 -1 -1 -1 0 -0 -0 -0 0 -1 1 1 -0 0 0 0 0 1 2 2 2 3 3 3 3 3 1 2 1 2 1 3 3 3 3 2 2 2 1 1 1 1
-0 -0 0 -1 1 -0 0 0 -0 0 0 -1 -0 1 0 -0 0 -1 1 -2 -1 0 -1 -0 -0 0 1 1 2 0 2 2 2 2 3 3 3 3 3 -1 -0 0 1 2 3 3 3 3 2 2 1 1 1 1
-0 0 -0 -0 -0 0 -0 -0 -1 0 0 -0 -0 0 -0 0 0 0 1 1 1 -1 -1 -2 -1 1 1 1 1 1 1 1 2 0 2 2 2 -1 -2 -2 -1 -1 -1 0 2 2 2 2 2 2 2 1 1 1
0 -0 -0 -1 -0 0 0 0 0 -0 0 0 -0 -1 -0 1 1 -1 -1 -2 -2 -1 -0 -2 -0 1 2 1 1 0 1 -0 3 2 3 -0 -1 -2 -3 -3 -3 -3 -2 -1 1 1 1 2 1 1 0 0 0 0
-0 -0 -0 -0 -0 -0 -1 -1 -2 -2 -4 -4 -2 0 0 -1 -3 -3 -0 -0 0 -1 -0 -0 0 1 1 1 2 1 1 1 2 2 1 -1 -3 -3 -4 -4 -4 -4 -4 -2 -2 -1 -1 0 -0 -0 -0 -0 -1 -1
-2 -2 -2 -2 -1 -2 -2 -3 -3 -3 -3 -2 -1 -1 -1 0 -0 -2 -0 -1 -1 2 -0 1 1 2 1 1 1 2 1 1 2 0 -3 -4 -3 -4 -5 -6 -6 -6 -5 -4 -3 -3 -3 -2 -3 -2 -3 -3 -3 -3
-3 -3 -3 -2 -2 -2 -0 -0 -2 -3 -3 -2 -2 -0 -3 -4 -5 -4 -0 -0 -1 -1 -2 -1 1 1 1 1 0 1 1 2 -0 -2 -4 -4 -5 -5 -6 -6 -7 -7 -6 -6 -6 -6 -5 -6 -5 -5 -6 -6 -6 -6
-3 -4 -5 -5 -4 -4 -4 -3 -4 -3 -3 -4 -5 -5 -6 -7 -5 -5 -5 -5 -3 -3 -3 -2 -1 0 -0 0 0 2 -1 -2 -4 -4 -6 -5 -6 -6 -7 -7 -8 -8 -8 -8 -8 -7 -8 -7 -8 -8 -8 -7 -7 -7
-2 -2 -3 -4 -4 -5 -5 -5 -5 -7 -8 -7 -7 -6 -6 -6 -6 -5 -5 -4 -5 -4 -3 -2 -0 -1 -1 -2 -3 -1 -3 -5 -5 -7 -6 -7 -7 -7 -8 -8 -9 -9 -9 -9 -9 -9 -9 -9 -9 -9 -9 -9 -9 -9
-2 -3 -3 -3 -4 -5 -5 -8 -7 -8 -8 -9 -8 -7 -7 -8 -8 -7 -6 -6 -5 -4 -2 -2 -2 -3 -3 -4 -5 -4 -6 -6 -7 -8 -8 -8 -8 -8 -8 -9 -9 -9 -10 -10 -10 -10 -10 -10 -10 -10 -9 -9 -9 -9
-3 -4 -3 -4 -8 -9 -7 -9 -11 -10 -8 -7 -7 -8 -8 -7 -7 -7 -6 -7 -5 -4 -4 -5 -6 -5 -6 -5 -6 -7 -8 -8 -9 -9 -10 -9 -10 -10 -10 -9 -9 -10 -10 -10 -10 -10 -10 -10 -10 -10 -11 -11 -11 -11
-6 -4 -3 -2 -3 -7 -11 -10 -10 -9 -7 -7 -7 -8 -8 -9 -9 -8 -8 -6 -5 -5 -7 -7 -10 -9 -8 -7 -8 -9 -10 -10 -10 -10 -11 -10 -10 -10 -10 -10 -10 -10 -10 -10 -10 -10 -10 -11 -11 -12 -11 -11 -12 -12
-5 -3 -2 -2 -5 -6 -8 -8 -10 -7 -7 -8 -9 -10 -9 -9 -9 -8 -8 -12 -12 -12 -13 -12 -12 -10 -10 -10 -9 -9 -10 -10 -11 -11 -11 -11 -11 -11 -10 -10 -10 -10 -11 -11 -11 -11 -12 -12 -12 -12 -12 -13 -13 -13
-2 -2 -2 -3 -4 -6 -6 -6 -7 -7 -6 -8 -10 -9 -10 -10 -11 -12 -12 -12 -13 -12 -11 -11 -10 -10 -11 -9 -10 -10 -10 -11 -11 -12 -12 -12 -11 -11 -12 -12 -12 -12 -12 -12 -13 -13 -13 -13 -13 -13 -13 -14 -14 -14
-5 -4 -6 -6 -5 -4 -4 -5 -5 -7 -7 -7 -9 -9 -11 -13 -12 -12 -13 -13 -13 -11 -10 -11 -11 -11 -10 -10 -10 -11 -11 -11 -12 -12 -13 -13 -13 -13 -13 -13 -13 -14 -15 -16 -16 -16 -17 -16 -17 -18 -18 -17 -16 -17
-7 -10 -11 -8 -7 -6 -6 -6 -6 -6 -7 -8 -7 -9 -9 -11 -13 -13 -14 -13 -12 -11 -12 -11 -11 -11 -11 -11 -11 -12 -12 -12 -13 -13 -13 -14 -14 -16 -16 -17 -18 -18 -19 -19 -19 -19 -18 -17 -17 -17 -18 -18 -19 -19
-11 -12 -9 -10 -9 -8 -7 -7 -7 -6 -7 -7 -9 -9 -10 -11 -12 -15 -12 -11 -12 -12 -12 -12 -12 -12 -12 -12 -13 -14 -14 -15 -15 -15 -15 -16 -15 -16 -17 -17 -18 -19 -19 -18 -19 -20 -20 -20 -21 -19 -18 -18 -19 -20
-12 -9 -6 -6 -7 -6 -7 -7 -7 -8 -9 -10 -10 -10 -10 -12 -14 -13 -11 -11 -11 -12 -13 -13 -14 -13 -13 -13 -13 -13 -13 -15 -15 -15 -16 -19 -20 -20 -22 -20 -20 -20 -19 -19 -20 -20 -21 -22 -21 -22 -22 -20 -20 -20
-11 -8 -7 -9 -6 -9 -12 -13 -12 -10 -11 -11 -11 -11 -11 -12 -13 -14 -13 -12 -11 -11 -12 -14 -15 -15 -15 -15 -15 -16 -15 -14 -14 -15 -15 -16 -17 -17 -19 -21 -23 -21 -19 -20 -21 -21 -22 -22 -21 -22 -23 -23 -22 -22
-10 -8 -9 -10 -9 -10 -10 -11 -12 -12 -12 -12 -11 -9 -13 -16 -15 -13 -12 -12 -12 -12 -12 -13 -14 -14 -15 -15 -15 -16 -16 -18 -22 -22 -18 -16 -17 -17 -19 -19 -23 -25 -25 -24 -22 -24 -25 -24 -23 -24 -24 -25 -25 -26
-11 -11 -9 -9 -8 -9 -10 -10 -10 -12 -12 -11 -13 -14 -17 -17 -17 -12 -13 -13 -13 -13 -13 -13 -14 -16 -16 -18 -16 -17 -22 -24 -25 -23 -22 -23 -25 -26 -26 -26 -27 -26 -26 -27 -26 -26 -26 -27 -26 -25 -26 -26 -25 -25
-9 -11 -12 -11 -12 -11 -14 -14 -14 -13 -13 -10 -14 -17 -17 -17 -14 -13 -14 -13 -14 -14 -14 -14 -15 -16 -17 -18 -18 -18 -18 -20 -22 -21 -21 -21 -21 -24 -27 -27 -27 -26 -26 -25 -26 -26 -27 -27 -27 -26 -25 -24 -24 -24
-11 -13 -14 -15 -13 -12 -12 -14 -13 -12 -13 -11 -18 -18 -13 -14 -14 -14 -14 -14 -15 -15 -15 -15 -15 -16 -17 -17 -18 -21 -22 -18 -20 -20 -18 -19 -19 -20 -25 -25 -26 -25 -26 -26 -26 -26 -25 -25 -26 -24 -24 -24 -24 -23
-10 -14 -14 -14 -16 -14 -12 -13 -15 -15 -14 -15 -15 -15 -15 -14 -14 -14 -15 -15 -16 -16 -17 -17 -17 -17 -17 -17 -19 -23 -28 -27 -25 -23 -21 -21 -22 -26 -26 -27 -28 -27 -27 -26 -26 -26 -26 -25 -25 -24 -24 -24 -24 -24
-12 -14 -13 -13 -13 -13 -14 -15 -16 -16 -16 -15 -16 -16 -16 -15 -15 -15 -14 -14 -15 -15 -16 -16 -16 -16 -16 -17 -20 -22 -24 -25 -28 -29 -29 -29 -28 -27 -29 -29 -28 -28 -27 -27 -27 -27 -27 -26 -26 -26 -25 -25 -26 -26
-13 -14 -14 -15 -13 -13 -12 -12 -14 -14 -14 -15 -15 -16 -16 -16 -16 -16 -15 -15 -16 -16 -17 -17 -17 -17 -18 -20 -27 -29 -29 -28 -28 -29 -29 -28 -28 -28 -28 -28 -28 -28 -27 -27 -27 -27 -27 -27 -27 -26 -27 -27 -27 -28
-13 -14 -13 -12 -12 -12 -12 -11 -11 -12 -12 -13 -13 -13 -14 -14 -16 -16 -16 -16 -16 -16 -16 -16 -17 -17 -23 -29 -29 -29 -28 -28 -28 -28 -28 -28 -28 -28 -28 -28 -28 -28 -28 -27 -27 -27 -27 -27 -27 -27 -27 -28 -29 -31

GFSWCAN_850_dewp_063.txt.gz
Dewpoint
-2 -2 -1 -2 -3 -2 -2 -2 -1 -1 -2 -2 -2 -1 -1 -1 -1 -0 0 -0 0 -0 0 1 2 0 -1 -2 -1 -2 -1 -0 -0 0 1 1 0 1 0 1 3 4 4 4 4 5 5 3 3 6 4 4 3 2
-3 -3 -1 -0 -1 -1 -1 -0 -0 -1 0 -0 -2 -1 -1 -2 -1 -1 -1 -0 -0 -0 -0 -2 -0 1 1 -2 -2 -2 -2 -0 -0 0 0 -0 -0 -1 1 2 -0 3 1 3 3 3 1 1 -0 -1 0 4 3 2
-1 -0 -0 -1 -0 -0 0 -0 0 -0 -1 -1 -1 -1 -0 -1 -1 -1 -1 -1 -1 -1 -0 -1 -0 -1 1 1 -1 -2 -1 -3 -1 -2 0 0 -1 -1 0 1 -1 -2 -0 2 3 1 0 -1 -2 1 3 4 3 1
-0 -0 -0 -0 -0 -1 -1 -1 -1 -1 -1 -1 -1 -2 -1 -0 0 -1 -1 -1 -1 -0 0 -2 -3 -3 -2 2 2 -1 -2 -2 -2 -1 1 1 3 -0 -0 -2 -1 -2 -2 -2 -2 0 -1 0 -1 -1 -1 1 2 2
-0 -0 0 -0 -0 -0 -0 -0 0 -0 -0 -1 -1 -1 -2 -1 -1 0 -1 -0 -2 -3 -1 -2 -2 -4 -2 1 1 0 1 1 1 1 2 3 1 2 2 2 1 3 3 3 3 3 4 2 1 0 -1 1 1 1
-1 -1 -1 -0 0 0 -0 0 -1 -0 -0 -0 -0 0 -1 -1 -0 0 -0 -1 -1 -3 -1 -1 -1 -1 -2 1 1 0 -1 -1 1 2 2 2 2 2 1 1 2 2 2 2 3 3 3 3 2 2 2 2 2 2
-0 -0 -0 0 -0 0 -0 -2 -1 -0 -0 0 -0 -0 -0 -1 -0 -0 -0 -1 -1 -1 -0 0 -1 2 -1 1 1 0 1 1 1 1 2 2 3 3 1 2 -0 -0 0 1 2 2 4 3 2 2 1 1 1 1
-0 -0 -0 -1 -0 0 -0 -0 -0 -0 -0 -0 0 0 -0 0 -0 0 -2 -1 -1 0 0 1 1 2 2 2 2 1 2 2 2 2 2 3 3 2 -0 -1 -1 -1 -0 1 1 2 2 2 2 2 2 2 1 1
-0 -0 -0 -0 0 -0 -0 -0 -0 0 0 -0 -0 -0 -0 -0 0 -0 -0 0 0 -1 -0 -2 -1 2 2 1 1 2 1 1 2 1 2 2 0 -2 -2 -3 -3 -3 -2 -1 0 1 2 1 1 1 1 0 0 -0
-1 -1 -0 -0 -0 -0 -0 -0 0 0 -0 -1 -0 -0 -0 -0 1 1 0 -0 -0 0 0 -2 -0 2 2 1 -0 0 1 1 2 1 -0 -1 -3 -3 -4 -4 -5 -4 -4 -3 -1 -1 -1 -0 -1 -1 -1 -1 -2 -3
-1 -1 -1 -1 -0 -0 -0 -0 0 -1 -0 -0 0 -0 -0 -0 -1 -0 -1 -0 -0 -2 -1 -0 -0 0 1 1 1 1 1 0 2 2 -0 -2 -3 -4 -5 -6 -6 -5 -5 -5 -4 -3 -3 -3 -4 -5 -5 -5 -3 -4
-3 -2 -2 -1 -2 -2 -2 -2 -3 -3 -2 -1 -1 -1 -0 -2 -2 -3 -3 -2 -1 -0 -1 1 1 1 1 1 1 1 2 1 1 -2 -3 -4 -4 -5 -6 -7 -7 -7 -6 -6 -6 -6 -6 -5 -5 -6 -6 -6 -7 -6
-4 -3 -2 -3 -3 -2 -1 -1 -3 -4 -3 -3 -4 -5 -6 -7 -7 -6 -1 -1 -2 -2 -3 -1 1 0 1 1 0 1 1 2 -2 -4 -5 -5 -6 -6 -7 -8 -8 -8 -8 -8 -8 -8 -7 -8 -7 -7 -8 -8 -8 -8
-3 -4 -5 -4 -5 -4 -4 -4 -4 -4 -5 -6 -7 -7 -7 -8 -6 -6 -5 -5 -4 -4 -4 -2 -1 -0 -1 -0 -1 -1 -3 -4 -5 -6 -6 -7 -7 -8 -8 -9 -9 -9 -9 -9 -9 -9 -9 -9 -9 -9 -9 -8 -8 -8
-3 -4 -5 -5 -5 -5 -6 -5 -6 -8 -10 -8 -9 -7 -7 -7 -7 -6 -6 -5 -5 -5 -3 -1 -1 -3 -3 -3 -4 -3 -6 -6 -7 -8 -8 -8 -8 -9 -9 -9 -10 -10 -10 -10 -10 -10 -10 -10 -9 -10 -9 -9 -9 -9
-3 -4 -4 -4 -8 -6 -6 -9 -9 -11 -10 -9 -9 -8 -9 -10 -9 -8 -7 -7 -5 -4 -3 -4 -4 -3 -4 -5 -5 -5 -8 -7 -8 -9 -9 -9 -9 -9 -10 -10 -10 -10 -10 -10 -10 -9 -9 -10 -10 -10 -10 -10 -10 -10
-4 -3 -3 -3 -9 -8 -8 -11 -12 -9 -7 -7 -8 -8 -9 -8 -8 -9 -8 -8 -5 -5 -5 -6 -7 -6 -6 -6 -8 -9 -9 -9 -10 -11 -10 -10 -10 -10 -10 -10 -10 -10 -10 -10 -10 -10 -11 -11 -10 -10 -11 -11 -11 -11
-6 -3 -3 -4 -6 -8 -11 -11 -9 -7 -9 -9 -9 -9 -9 -10 -9 -9 -10 -8 -6 -8 -10 -8 -11 -10 -9 -8 -10 -10 -11 -10 -11 -11 -11 -11 -10 -10 -10 -10 -10 -10 -10 -10 -10 -11 -11 -11 -12 -12 -12 -12 -12 -13
-3 -2 -2 -4 -8 -9 -9 -9 -11 -9 -9 -10 -10 -10 -10 -10 -11 -12 -14 -14 -14 -14 -14 -12 -12 -11 -11 -11 -11 -10 -11 -11 -12 -12 -11 -11 -11 -11 -11 -11 -11 -11 -11 -11 -11 -12 -12 -12 -12 -13 -13 -13 -14 -14
-3 -3 -4 -6 -8 -8 -7 -6 -9 -9 -7 -9 -9 -10 -10 -10 -12 -13 -13 -13 -13 -13 -11 -12 -12 -11 -10 -10 -11 -11 -11 -11 -12 -12 -13 -13 -12 -12 -12 -12 -12 -12 -12 -12 -13 -13 -13 -13 -13 -14 -14 -14 -15 -16
-5 -8 -7 -7 -6 -5 -5 -6 -7 -8 -8 -7 -11 -11 -11 -13 -13 -13 -13 -14 -13 -11 -11 -11 -11 -11 -10 -10 -11 -11 -11 -11 -12 -13 -13 -13 -13 -13 -13 -13 -13 -13 -14 -15 -16 -17 -18 -18 -18 -18 -19 -18 -18 -18
-10 -11 -11 -8 -7 -7 -7 -6 -6 -6 -8 -8 -7 -10 -10 -11 -13 -13 -14 -13 -12 -12 -12 -11 -11 -11 -11 -11 -11 -11 -12 -12 -12 -13 -13 -13 -14 -16 -17 -18 -19 -20 -21 -21 -21 -21 -20 -19 -18 -19 -19 -20 -20 -21
-14 -12 -12 -10 -9 -8 -6 -6 -6 -6 -8 -8 -9 -10 -11 -12 -13 -15 -11 -12 -12 -12 -12 -12 -12 -13 -13 -12 -12 -13 -13 -13 -14 -15 -15 -16 -17 -18 -19 -21 -21 -22 -22 -20 -20 -20 -21 -22 -21 -20 -19 -19 -20 -21
-10 -8 -6 -6 -7 -7 -7 -7 -8 -9 -9 -10 -10 -10 -11 -13 -15 -14 -12 -12 -12 -12 -13 -12 -13 -13 -13 -14 -15 -15 -16 -17 -18 -19 -20 -21 -22 -21 -22 -22 -21 -21 -21 -21 -22 -22 -21 -22 -22 -22 -21 -20 -21 -21
-10 -9 -7 -10 -8 -11 -13 -14 -13 -11 -12 -12 -12 -11 -13 -13 -15 -15 -14 -13 -12 -12 -14 -14 -14 -14 -15 -15 -14 -14 -14 -14 -15 -16 -16 -17 -19 -20 -22 -23 -23 -22 -20 -19 -22 -22 -23 -22 -21 -22 -23 -23 -23 -23
-10 -8 -9 -10 -9 -10 -11 -11 -12 -12 -14 -13 -12 -11 -14 -17 -17 -14 -13 -13 -12 -13 -13 -14 -15 -15 -15 -16 -17 -18 -19 -19 -19 -20 -19 -18 -18 -18 -20 -21 -23 -24 -24 -25 -24 -23 -23 -24 -23 -24 -25 -26 -26 -26
-11 -11 -10 -10 -9 -10 -11 -11 -11 -12 -13 -12 -13 -17 -18 -19 -19 -14 -13 -13 -13 -13 -13 -14 -15 -16 -16 -16 -16 -20 -23 -24 -25 -25 -24 -24 -26 -27 -27 -26 -26 -27 -27 -27 -27 -27 -27 -27 -27 -28 -28 -28 -27 -25
-11 -12 -13 -13 -13 -12 -16 -17 -17 -15 -15 -12 -15 -18 -19 -19 -15 -13 -13 -13 -13 -13 -13 -14 -15 -17 -18 -19 -19 -18 -19 -21 -24 -22 -21 -22 -23 -27 -28 -27 -27 -27 -26 -26 -26 -27 -28 -28 -28 -26 -25 -25 -25 -24
-12 -13 -16 -18 -14 -13 -13 -15 -14 -13 -13 -13 -20 -19 -14 -14 -14 -14 -14 -14 -14 -14 -14 -15 -15 -16 -17 -17 -18 -21 -26 -22 -20 -21 -20 -19 -21 -23 -27 -27 -27 -27 -27 -26 -26 -26 -26 -26 -26 -26 -25 -24 -25 -25
-12 -15 -15 -15 -17 -15 -14 -15 -15 -14 -14 -15 -15 -15 -15 -15 -14 -15 -15 -15 -16 -16 -16 -16 -16 -17 -17 -17 -20 -23 -26 -27 -27 -26 -24 -23 -22 -27 -27 -28 -28 -27 -27 -27 -26 -26 -26 -25 -25 -25 -25 -25 -25 -25
-14 -15 -14 -14 -14 -14 -15 -16 -16 -16 -16 -16 -16 -16 -15 -15 -15 -15 -15 -15 -15 -16 -16 -16 -16 -17 -16 -17 -19 -22 -23 -24 -26 -28 -29 -29 -28 -28 -28 -28 -28 -28 -27 -27 -27 -28 -27 -27 -26 -26 -26 -26 -26 -27
-14 -14 -15 -15 -13 -13 -13 -13 -14 -15 -15 -16 -16 -17 -16 -16 -16 -16 -16 -15 -16 -16 -16 -16 -17 -17 -18 -19 -25 -29 -29 -29 -28 -29 -29 -29 -28 -28 -28 -28 -28 -28 -28 -28 -28 -28 -27 -27 -27 -27 -27 -27 -27 -29
-14 -14 -14 -13 -13 -13 -12 -12 -12 -13 -13 -14 -14 -14 -14 -16 -16 -16 -16 -16 -16 -16 -16 -16 -16 -17 -22 -29 -29 -28 -28 -28 -28 -28 -28 -28 -28 -28 -28 -28 -28 -28 -28 -28 -27 -27 -27 -27 -28 -28 -28 -29 -30 -32

GFSWCAN_850_dewp_069.txt.gz
Dewpoint
-3 -2 -2 -3 -3 -2 -2 -3 -3 -3 -2 -1 -2 -2 -1 -1 -2 -2 -2 -1 -1 -1 -0 0 -1 -0 2 1 1 -0 1 1 2 2 2 1 1 0 -1 0 3 2 4 4 3 5 4 -1 2 2 -2 -2 -0 -1
-2 -2 -2 -2 -1 -1 -1 -1 -1 -1 -1 -2 -2 -2 -1 -1 -1 -1 -1 -1 -1 -0 -0 -1 -1 -0 -2 -3 -0 -0 -1 -0 0 1 0 -0 1 0 0 1 0 1 2 3 3 2 0 1 2 -1 1 2 1 1
-2 -1 -1 -1 -0 -0 -1 -1 -0 0 -1 -1 -1 -1 -1 -1 -1 -1 -1 -0 -1 -1 -1 0 1 0 1 1 0 0 -0 -1 -1 -2 -0 -0 -0 -1 2 1 0 -1 -1 1 0 -2 -3 -5 -2 2 2 3 3 3
-2 -1 -0 -1 -2 -1 -1 -1 -1 -1 -0 -1 -1 -1 -1 -1 -1 -1 -1 -1 -0 -1 0 -0 -1 1 1 1 1 0 -1 -1 -1 -2 0 0 1 -2 -0 -2 -1 -2 -2 -0 -1 -2 0 -2 2 3 2 2 2 2
-1 -1 -1 -1 -1 -1 -1 -1 -1 -1 -1 -1 -1 -0 -1 -1 -1 -1 -1 -1 -1 -1 -0 -0 0 -0 -0 1 0 1 0 1 1 2 1 3 0 2 1 2 2 1 -0 1 -0 2 2 2 2 3 2 2 1 1
-1 -1 -1 -1 -1 -0 -1 -0 0 -0 -1 -0 -0 -0 -0 -1 -1 -1 -1 -1 -1 -0 -1 -0 -3 -3 -2 -2 1 1 1 2 2 2 2 2 1 0 2 2 1 1 1 1 1 1 2 1 3 2 2 1 0 -0
-1 -1 -0 -0 -0 -1 -1 -1 -1 -0 -0 -1 -1 -0 -0 -1 -1 -1 -1 -2 -1 -1 -1 -2 -1 1 -2 -0 -0 1 0 0 1 1 1 2 2 1 2 2 -1 -1 -2 -1 -1 0 2 2 1 1 1 -0 -1 -1
-1 -0 -0 -0 -0 -0 -1 -1 -1 -1 -0 -1 -0 -0 -0 -1 -1 -0 0 -1 -1 -1 -1 1 1 1 -0 0 1 0 1 1 1 1 1 2 2 2 3 -3 -4 -4 -4 -2 -2 -1 -1 0 -0 -0 -0 -1 -2 -2
-1 -0 -0 -0 -0 0 -0 -1 -0 -1 -0 -0 -0 -0 -1 -1 -1 -0 -0 -1 -1 -1 -1 -0 1 2 -0 0 1 1 1 1 2 1 2 2 0 1 -4 -5 -5 -5 -5 -4 -4 -3 -2 -2 -3 -3 -4 -4 -5 -3
-0 -0 -0 -0 -1 -1 -1 0 -1 -1 -0 -0 -0 -0 -0 -0 -1 -1 -0 -0 -1 -0 0 -1 -0 2 -0 1 1 0 1 2 2 1 -1 -1 -4 -6 -6 -6 -7 -7 -7 -6 -5 -5 -5 -5 -5 -6 -7 -7 -8 -8
-0 -0 -1 -1 -0 -0 -1 -1 -1 -1 -0 -1 -1 -0 -0 -0 -1 -0 -1 -1 -1 -0 -1 -0 0 1 1 1 1 0 1 1 1 1 0 -3 -4 -6 -7 -7 -8 -8 -8 -7 -7 -7 -7 -7 -7 -8 -9 -9 -10 -10
-3 -4 -3 -1 -1 -1 -0 -1 -1 -2 -1 -1 -1 -1 -1 -1 -1 -0 -1 -1 -1 -0 -1 1 0 0 0 -0 1 -0 2 1 1 -3 -4 -5 -7 -7 -8 -8 -9 -9 -9 -9 -9 -9 -9 -9 -9 -10 -11 -11 -11 -11
-5 -5 -1 -1 -1 -1 -1 -1 -0 -1 -2 -2 -4 -9 -8 -9 -8 -7 -1 -3 -2 -4 -4 -2 0 -0 -0 1 0 1 -0 -2 -4 -5 -6 -7 -8 -8 -9 -9 -10 -10 -10 -10 -10 -10 -10 -10 -10 -10 -11 -11 -11 -10
-6 -6 -2 -1 -2 -3 -4 -3 -4 -5 -7 -10 -9 -9 -10 -10 -7 -7 -7 -6 -6 -5 -5 -2 -2 -2 -3 -3 -3 -3 -5 -6 -6 -6 -8 -8 -9 -9 -10 -10 -10 -11 -11 -11 -11 -11 -11 -11 -11 -11 -11 -10 -10 -10
-8 -8 -5 -3 -7 -9 -9 -8 -6 -7 -11 -9 -10 -9 -9 -8 -9 -8 -8 -7 -7 -5 -4 -2 -4 -5 -5 -5 -5 -6 -6 -7 -8 -8 -9 -9 -9 -10 -10 -10 -11 -11 -11 -11 -11 -11 -11 -11 -11 -11 -11 -11 -11 -11
-4 -7 -9 -7 -4 -4 -8 -10 -10 -12 -11 -11 -11 -10 -10 -10 -10 -10 -9 -8 -7 -5 -6 -6 -4 -5 -6 -7 -8 -8 -7 -8 -9 -10 -10 -10 -11 -11 -11 -11 -11 -11 -11 -11 -11 -11 -11 -11 -11 -12 -12 -12 -12 -12
-3 -3 -5 -9 -9 -4 -7 -9 -11 -11 -10 -10 -10 -10 -10 -10 -10 -10 -10 -9 -7 -7 -6 -7 -7 -7 -7 -8 -9 -10 -10 -10 -11 -12 -11 -11 -11 -11 -11 -11 -11 -11 -11 -11 -11 -11 -12 -12 -12 -11 -12 -13 -13 -13
-3 -3 -5 -7 -7 -8 -8 -10 -12 -11 -10 -10 -11 -10 -10 -11 -10 -11 -11 -11 -10 -10 -9 -8 -9 -9 -9 -9 -10 -11 -12 -12 -12 -12 -12 -12 -11 -11 -11 -11 -11 -11 -11 -11 -11 -12 -12 -12 -12 -13 -13 -13 -14 -14
-5 -5 -7 -9 -9 -8 -10 -11 -13 -10 -10 -10 -11 -11 -11 -12 -12 -12 -13 -13 -13 -13 -13 -12 -11 -11 -11 -11 -12 -11 -12 -12 -13 -13 -13 -12 -12 -12 -12 -12 -12 -12 -12 -12 -12 -12 -12 -12 -13 -14 -15 -16 -17 -17
-6 -5 -5 -4 -6 -7 -7 -10 -12 -10 -9 -10 -11 -12 -12 -12 -14 -14 -14 -13 -13 -12 -12 -12 -12 -12 -11 -11 -12 -12 -12 -12 -13 -13 -13 -13 -13 -12 -12 -12 -12 -12 -12 -13 -13 -13 -14 -15 -15 -16 -17 -19 -20 -20
-7 -7 -8 -9 -8 -7 -8 -9 -9 -10 -9 -9 -11 -13 -14 -15 -14 -14 -14 -14 -14 -13 -13 -12 -13 -12 -11 -11 -12 -12 -12 -12 -12 -12 -13 -13 -13 -13 -13 -13 -13 -13 -15 -16 -18 -19 -20 -21 -21 -21 -22 -24 -24 -23
-11 -11 -10 -11 -9 -9 -9 -8 -8 -8 -9 -9 -8 -13 -13 -13 -13 -13 -15 -14 -13 -13 -13 -13 -12 -12 -12 -12 -12 -12 -12 -12 -12 -12 -13 -13 -14 -16 -18 -19 -20 -21 -22 -22 -22 -21 -21 -20 -20 -21 -23 -25 -25 -26
-14 -13 -10 -9 -8 -6 -5 -5 -7 -7 -9 -9 -11 -12 -13 -14 -14 -15 -12 -13 -13 -13 -13 -13 -12 -12 -12 -12 -12 -13 -12 -13 -14 -15 -17 -19 -21 -22 -22 -23 -22 -23 -24 -24 -24 -23 -23 -22 -22 -22 -23 -24 -24 -25
-11 -10 -9 -8 -8 -9 -8 -9 -9 -10 -10 -10 -10 -11 -12 -13 -15 -14 -13 -13 -13 -13 -13 -13 -13 -13 -13 -14 -15 -16 -16 -18 -20 -21 -21 -22 -23 -23 -23 -23 -23 -24 -25 -25 -25 -25 -25 -24 -23 -23 -22 -22 -23 -24
-11 -9 -9 -12 -9 -12 -13 -14 -13 -11 -11 -12 -12 -12 -13 -14 -14 -14 -14 -13 -13 -13 -13 -13 -14 -15 -16 -16 -16 -16 -17 -17 -18 -20 -20 -20 -22 -23 -23 -23 -23 -23 -23 -24 -25 -24 -24 -24 -24 -24 -25 -26 -26 -26
-11 -10 -10 -13 -11 -11 -12 -13 -14 -13 -13 -13 -14 -15 -16 -16 -15 -14 -14 -13 -13 -14 -14 -15 -16 -16 -15 -15 -15 -15 -16 -17 -18 -20 -20 -20 -21 -22 -22 -22 -24 -25 -25 -26 -26 -27 -26 -26 -26 -27 -27 -27 -27 -26
-12 -14 -12 -12 -11 -11 -14 -13 -13 -14 -15 -13 -15 -18 -18 -17 -18 -15 -14 -13 -13 -14 -14 -14 -15 -15 -16 -17 -18 -20 -22 -24 -25 -25 -24 -24 -26 -28 -28 -28 -28 -27 -27 -27 -28 -28 -28 -28 -28 -28 -27 -26 -25 -25
-13 -14 -16 -15 -15 -15 -19 -18 -17 -16 -15 -14 -17 -20 -19 -19 -15 -14 -14 -13 -13 -14 -14 -15 -17 -17 -16 -19 -20 -21 -25 -24 -24 -24 -23 -23 -23 -26 -29 -28 -28 -28 -27 -27 -27 -26 -26 -26 -26 -26 -27 -26 -26 -25
-15 -15 -17 -19 -17 -17 -17 -18 -16 -15 -15 -16 -20 -18 -16 -16 -15 -14 -13 -13 -13 -14 -14 -16 -18 -18 -18 -18 -20 -24 -26 -23 -22 -22 -23 -24 -23 -22 -27 -28 -29 -28 -27 -27 -27 -26 -26 -26 -26 -26 -26 -26 -26 -26
-15 -15 -17 -18 -20 -18 -17 -17 -16 -16 -15 -16 -16 -16 -16 -16 -15 -14 -14 -14 -15 -15 -15 -16 -17 -18 -18 -21 -24 -25 -25 -25 -25 -26 -28 -28 -27 -27 -27 -28 -29 -28 -28 -28 -27 -27 -28 -27 -27 -27 -26 -26 -26 -27
-15 -15 -16 -16 -17 -16 -16 -16 -16 -16 -16 -16 -16 -16 -16 -16 -16 -16 -16 -16 -16 -16 -16 -17 -17 -17 -17 -20 -22 -24 -26 -26 -28 -28 -29 -28 -28 -28 -28 -28 -28 -28 -28 -28 -28 -28 -28 -27 -27 -27 -27 -27 -28 -28
-15 -16 -17 -18 -16 -15 -15 -14 -16 -16 -16 -16 -16 -17 -16 -16 -16 -16 -16 -16 -16 -16 -16 -16 -17 -17 -20 -25 -29 -29 -29 -29 -29 -28 -28 -28 -28 -28 -28 -28 -28 -28 -28 -28 -28 -27 -27 -27 -28 -28 -28 -30 -31 -32
-15 -15 -15 -14 -15 -15 -14 -14 -15 -15 -15 -15 -15 -15 -16 -16 -16 -16 -16 -16 -16 -16 -17 -17 -17 -18 -26 -29 -29 -28 -28 -28 -28 -28 -28 -27 -27 -27 -27 -28 -28 -28 -28 -28 -27 -28 -28 -29 -30 -31 -31 -31 -31 -31

GFSWCAN_850_dewp_072.txt.gz
Dewpoint
-3 -2 -2 -2 -2 -1 -2 -2 -2 -2 -3 -2 -2 -2 -1 -1 -1 -1 -2 -2 -2 -2 -4 -4 -2 -4 -3 -2 -1 1 2 1 1 3 1 -1 -0 -2 -3 -2 2 3 2 3 3 2 4 -2 -0 1 1 -1 -2 -1
-3 -2 -2 -2 -1 -1 -1 -0 -2 -2 -1 -1 -3 -2 -1 -1 -1 -1 -1 -2 -1 -1 -1 -1 -2 -1 -1 -2 -2 1 -0 1 -0 1 -1 -1 0 -1 -3 -1 -4 2 -0 1 -0 -0 -1 0 -0 -2 2 2 1 2
-3 -2 -2 -1 -1 -1 -1 -1 -1 -1 -1 -1 -1 -1 -1 -1 -1 -1 -1 -1 -1 -1 -2 -2 0 -0 -1 -0 1 1 1 2 1 -1 1 -0 1 -3 0 -2 -4 -4 -5 -0 -2 -4 -4 -5 -2 2 2 2 2 2
-2 -1 -1 -1 -1 -1 -0 -1 -1 -1 -1 -1 -0 -1 -2 -1 -1 -1 -1 -1 -2 -1 0 0 -2 -2 -1 -1 1 -1 1 1 1 1 1 2 0 -4 -2 -4 -3 -5 -5 -3 -3 -4 -5 -5 -1 2 2 2 2 1
-1 -1 -1 -1 -1 -0 -0 -1 -1 -1 -1 -1 -1 -1 -1 -1 -1 -1 -1 -1 -1 -1 -0 -2 0 -0 1 1 1 1 1 2 2 2 3 3 -2 -0 -1 0 -2 -5 -5 -2 -3 0 1 -0 1 2 2 2 1 0
-1 -1 -0 -0 -1 -0 -0 -2 -1 -1 -1 -1 -1 -1 -1 -1 -1 -1 -2 -1 -0 -1 -0 0 -1 0 1 0 1 1 1 2 2 2 2 2 1 0 2 -0 -4 1 0 0 0 0 1 1 1 1 1 1 -0 -2
-1 -1 -1 -1 -1 -0 -1 -1 -1 -1 -1 -1 -1 -0 -1 -1 -1 -1 -1 -2 -1 -1 -0 -0 -1 1 1 1 1 2 2 1 1 1 2 2 1 0 4 1 -0 -1 -2 -2 -1 -1 -0 1 0 -0 0 -1 -2 -3
-1 -1 -0 -1 -0 -1 -1 -1 -0 -0 -0 -1 -0 -0 -1 -1 -1 -1 -0 -1 -1 -0 -0 0 0 1 1 1 1 1 1 0 0 1 2 2 1 2 4 -2 -4 -4 -4 -3 -3 -3 -2 -2 -1 -1 -2 -2 -4 -5
-1 -1 -0 -1 -0 -0 -1 -1 -1 -0 -0 -0 -0 -1 -2 -2 -1 -0 -1 -1 -1 -1 -1 0 1 1 0 -1 -1 0 1 2 1 1 3 2 3 2 -4 -5 -5 -5 -5 -5 -5 -4 -3 -3 -4 -4 -5 -5 -6 -7
-1 -0 -0 -1 -0 -1 -0 -1 -0 -0 -0 -0 -1 -1 -1 -1 -1 -1 -1 -1 -0 -0 0 0 1 2 -1 -1 1 1 1 3 3 3 0 1 -3 -6 -6 -7 -7 -6 -6 -6 -5 -4 -5 -4 -5 -7 -7 -8 -9 -9
-4 -1 -0 -1 -1 -0 -0 -1 -0 -0 -0 -1 -1 -1 -1 -1 -1 -1 -1 -1 -1 0 -1 -0 0 1 1 0 1 1 2 1 2 1 3 -0 -3 -6 -7 -8 -7 -7 -7 -7 -7 -7 -7 -7 -7 -8 -9 -10 -10 -10
-4 -0 -0 -1 -1 -0 -0 -0 -0 -1 -2 -2 -1 -1 -1 -2 -1 -0 0 0 -0 0 -1 1 0 1 -0 1 1 1 3 1 2 -2 -1 -2 -6 -8 -8 -8 -8 -8 -8 -8 -8 -8 -9 -9 -9 -10 -11 -11 -11 -11
-1 -1 -0 -1 -1 -1 -2 -1 -2 -2 -2 -3 -5 -7 -5 -6 -3 -1 -0 -1 -1 -3 -2 -1 1 -0 -0 -0 1 2 0 -0 -3 -2 -4 -6 -8 -9 -8 -9 -9 -9 -9 -9 -10 -10 -11 -11 -11 -11 -12 -12 -11 -11
-1 -0 -0 -1 -1 -1 -0 -3 -3 -3 -6 -9 -7 -7 -6 -6 -6 -6 -5 -4 -4 -4 -3 -1 -1 -1 -1 -1 -1 -1 -3 -4 -3 -3 -5 -8 -9 -8 -9 -9 -10 -10 -11 -11 -11 -12 -12 -12 -12 -12 -12 -11 -11 -12
-8 -1 -1 -8 -9 -8 -4 -4 -5 -7 -11 -8 -9 -6 -7 -8 -7 -7 -6 -5 -5 -5 -3 -1 -3 -3 -3 -3 -4 -4 -4 -5 -6 -6 -8 -9 -9 -9 -9 -10 -11 -11 -11 -11 -12 -12 -12 -12 -12 -12 -12 -12 -12 -12
-6 -8 -4 -1 -4 -9 -10 -10 -9 -12 -9 -10 -9 -7 -8 -7 -7 -7 -7 -6 -6 -5 -3 -4 -3 -4 -5 -6 -6 -6 -6 -6 -8 -9 -9 -10 -10 -11 -11 -11 -11 -11 -11 -12 -12 -12 -12 -12 -12 -12 -12 -12 -12 -12
-3 -6 -9 -9 -4 -5 -7 -9 -12 -10 -10 -10 -9 -9 -9 -8 -8 -8 -8 -7 -7 -4 -3 -6 -5 -5 -7 -7 -8 -9 -9 -9 -10 -11 -11 -11 -11 -11 -11 -11 -11 -12 -12 -12 -12 -12 -12 -12 -12 -12 -13 -13 -13 -14
-3 -3 -4 -6 -7 -6 -8 -12 -10 -10 -10 -9 -9 -9 -9 -9 -9 -9 -8 -8 -6 -7 -7 -7 -9 -8 -7 -8 -8 -10 -11 -11 -11 -12 -12 -12 -12 -12 -11 -12 -12 -12 -12 -12 -12 -12 -13 -13 -13 -14 -14 -14 -15 -16
-5 -2 -4 -7 -9 -9 -10 -10 -11 -10 -9 -9 -9 -9 -10 -10 -10 -9 -9 -10 -10 -10 -9 -10 -10 -9 -10 -10 -11 -11 -11 -11 -11 -12 -13 -12 -12 -12 -12 -12 -12 -12 -12 -12 -12 -12 -13 -13 -14 -15 -15 -15 -16 -16
-4 -6 -5 -6 -7 -9 -9 -9 -10 -10 -10 -10 -10 -11 -11 -11 -11 -10 -10 -11 -11 -11 -11 -11 -10 -11 -11 -10 -10 -10 -11 -11 -11 -11 -12 -13 -13 -12 -12 -13 -13 -13 -13 -13 -13 -14 -15 -15 -16 -17 -17 -16 -17 -18
-5 -7 -6 -6 -10 -10 -8 -9 -9 -10 -10 -10 -11 -12 -12 -11 -10 -10 -11 -11 -12 -12 -12 -11 -11 -11 -11 -11 -11 -11 -11 -11 -10 -11 -11 -13 -14 -14 -13 -13 -13 -13 -14 -15 -15 -18 -19 -18 -20 -22 -22 -24 -21 -20
-8 -9 -10 -10 -9 -9 -8 -7 -9 -9 -10 -10 -11 -12 -11 -11 -11 -12 -13 -13 -13 -12 -12 -11 -11 -11 -12 -12 -13 -13 -12 -12 -12 -12 -13 -13 -14 -15 -16 -17 -17 -19 -19 -17 -17 -17 -18 -19 -20 -21 -23 -23 -22 -21
-12 -11 -9 -8 -7 -6 -6 -6 -7 -8 -8 -9 -11 -12 -12 -12 -13 -13 -13 -13 -13 -13 -12 -13 -13 -13 -13 -13 -13 -13 -13 -13 -13 -14 -16 -18 -21 -22 -22 -23 -21 -20 -19 -20 -19 -18 -20 -22 -22 -22 -22 -20 -20 -22
-11 -11 -9 -8 -7 -7 -8 -8 -9 -9 -9 -9 -10 -11 -12 -12 -13 -13 -12 -13 -12 -12 -13 -13 -13 -13 -13 -14 -14 -15 -16 -18 -20 -22 -21 -19 -18 -20 -20 -21 -21 -22 -22 -23 -22 -22 -24 -24 -24 -24 -25 -25 -26 -24
-11 -10 -9 -8 -9 -8 -8 -8 -9 -9 -8 -9 -10 -10 -11 -13 -12 -12 -12 -13 -12 -12 -13 -13 -13 -14 -14 -14 -15 -18 -18 -17 -17 -20 -22 -22 -23 -23 -22 -24 -24 -24 -24 -22 -25 -25 -26 -26 -27 -27 -27 -27 -26 -27
-9 -10 -9 -9 -8 -8 -9 -8 -9 -9 -9 -10 -11 -13 -13 -13 -12 -12 -13 -12 -12 -13 -14 -13 -13 -13 -14 -14 -15 -15 -17 -18 -20 -19 -21 -21 -21 -19 -18 -19 -19 -23 -26 -26 -26 -25 -26 -26 -27 -27 -27 -27 -27 -26
-9 -10 -12 -12 -11 -11 -10 -11 -11 -10 -10 -10 -12 -13 -14 -13 -12 -14 -13 -14 -13 -15 -15 -15 -15 -14 -15 -17 -18 -20 -22 -24 -25 -24 -24 -25 -26 -27 -27 -23 -23 -26 -27 -26 -26 -26 -25 -27 -27 -27 -27 -26 -26 -25
-12 -13 -12 -14 -14 -14 -13 -13 -12 -12 -12 -14 -15 -14 -14 -14 -13 -13 -14 -13 -14 -14 -15 -16 -16 -16 -17 -20 -21 -23 -26 -25 -24 -24 -24 -24 -24 -25 -29 -29 -28 -28 -27 -26 -26 -26 -26 -26 -26 -26 -26 -26 -26 -26
-14 -14 -16 -17 -16 -16 -15 -14 -14 -14 -15 -15 -15 -15 -15 -16 -16 -15 -14 -13 -14 -14 -16 -17 -18 -18 -18 -18 -21 -24 -26 -24 -21 -23 -25 -22 -24 -23 -27 -29 -29 -28 -27 -27 -27 -27 -26 -26 -26 -26 -26 -26 -26 -26
-14 -15 -16 -17 -17 -15 -16 -16 -16 -17 -16 -15 -15 -16 -16 -17 -15 -14 -14 -14 -14 -15 -16 -17 -17 -18 -19 -23 -26 -27 -26 -26 -26 -26 -26 -24 -26 -27 -27 -28 -29 -28 -28 -27 -27 -27 -27 -27 -27 -27 -26 -27 -27 -27
-14 -15 -16 -16 -16 -15 -16 -16 -16 -15 -16 -16 -15 -15 -16 -16 -16 -15 -15 -15 -15 -15 -16 -17 -18 -17 -19 -23 -25 -26 -27 -27 -28 -28 -28 -28 -28 -28 -28 -28 -28 -28 -28 -28 -28 -28 -27 -27 -27 -27 -27 -27 -28 -29
-15 -15 -16 -15 -15 -15 -15 -15 -16 -15 -15 -15 -15 -16 -16 -15 -15 -16 -16 -16 -16 -16 -17 -17 -17 -18 -22 -27 -29 -29 -29 -29 -28 -28 -28 -28 -27 -28 -28 -28 -28 -28 -28 -28 -27 -27 -27 -27 -28 -28 -29 -30 -31 -31
-15 -15 -14 -14 -14 -14 -15 -14 -15 -15 -15 -15 -16 -16 -16 -16 -15 -16 -16 -16 -17 -16 -16 -17 -17 -19 -26 -27 -28 -28 -28 -28 -28 -28 -28 -27 -27 -27 -27 -27 -27 -28 -27 -27 -27 -28 -28 -29 -30 -31 -31 -31 -31 -31

GFSWCAN_850_dewp_075.txt.gz
Dewpoint
-4 -4 -4 -3 -3 -3 -2 -1 -1 -1 -1 -3 -3 -2 -2 -2 -5 -4 -5 -3 -2 -2 -4 -6 -5 -2 -3 -4 -0 2 3 2 2 4 2 0 -0 -1 -3 -2 1 2 3 3 2 5 2 -6 -4 -0 2 1 -0 -0
-4 -4 -4 -3 -2 -2 -2 -1 -2 -1 -1 -2 -2 -2 -2 -1 -2 -2 -2 -2 -2 -2 -4 -4 -5 -4 -3 0 2 0 -0 1 0 2 -1 -1 0 -1 -3 -1 -2 2 -1 0 -2 -1 -3 -2 -0 0 1 0 0 0
-4 -4 -3 -3 -2 -1 -1 -1 -1 -1 -0 -1 -1 -1 -2 -2 -1 -1 -1 -1 -2 -1 -1 -3 -3 -2 -4 -3 1 1 1 0 1 -1 2 3 3 -2 0 -2 -3 -3 -0 3 4 -1 2 -2 -4 -0 1 1 1 1
-4 -3 -2 -1 -1 -2 -1 -1 -1 -1 -1 -1 -2 -1 -1 -2 -1 -1 -1 -1 -1 -1 -1 -4 -4 -4 -1 -2 -1 0 -1 1 1 2 2 2 2 -4 -2 -3 -3 -5 -4 -4 -5 -5 -6 -6 -1 0 1 1 1 1
-2 -1 -1 -1 -0 -1 -0 -1 -1 -1 -1 -1 -1 -1 -0 -1 -1 -1 -1 -1 -1 -4 -1 -5 -5 -2 -4 -4 -0 1 1 1 2 2 2 3 -2 -1 -1 -1 -0 -5 -5 -2 -2 1 1 -1 0 1 1 1 1 -0
-2 -1 -1 -1 -1 -0 -1 -0 -1 -0 -1 -1 -1 -0 -1 -1 -1 -1 -1 -1 -1 -3 -1 1 -3 -3 -1 -2 -2 -1 1 2 1 1 2 1 -1 1 3 -0 -4 -3 -0 -0 -0 -0 0 0 1 0 0 -1 -0 -0
-1 -1 -1 -0 -0 -1 -1 -1 -0 -1 -1 -1 -0 -1 -1 -1 -1 -1 -1 -1 -1 -1 -0 -1 0 -1 -1 1 1 2 1 1 1 1 2 2 -0 -0 3 2 1 -1 -2 -2 -1 -2 -1 -0 -0 -1 -1 -1 -1 -3
-1 -0 -0 -1 -0 -0 -1 -1 -1 -1 -1 -0 -0 -1 -1 -1 -1 -1 -2 -2 -2 -1 -0 2 1 -0 -0 1 1 1 0 0 1 1 1 2 -0 2 4 -2 -3 -4 -4 -2 -3 -3 -2 -1 -2 -2 -2 -3 -4 -5
-1 -0 -0 -0 -0 -1 -1 -1 -1 -1 -0 -0 -0 -1 -2 -2 -1 -1 -1 -0 -0 -0 1 1 0 1 0 0 0 1 1 2 1 2 1 0 1 3 -3 -4 -5 -5 -5 -5 -5 -4 -4 -3 -3 -4 -4 -5 -5 -6
-2 -0 -1 -1 -1 -0 -1 -0 -0 -0 0 -0 -1 -2 -1 -1 -1 -1 -0 -1 -1 -0 0 0 1 2 -1 -1 -0 1 1 2 3 2 1 3 -2 -5 -6 -7 -6 -6 -6 -6 -5 -4 -5 -5 -5 -6 -6 -7 -8 -9
-0 -1 -0 -0 -1 -0 -0 -0 -0 -0 -0 -1 -1 -1 -1 -1 -1 -1 -1 1 -0 2 -1 -0 -0 0 1 0 2 1 2 2 3 2 3 3 -2 -6 -7 -8 -7 -7 -7 -7 -6 -6 -6 -6 -6 -6 -8 -9 -10 -10
-0 -1 -1 -1 -1 -1 -0 -0 -0 0 0 -0 -1 -1 -1 -1 -0 1 1 0 -1 0 -0 -0 0 1 1 1 0 1 3 2 3 -0 2 1 -6 -8 -8 -8 -8 -8 -8 -8 -8 -8 -8 -8 -8 -9 -10 -10 -11 -12
-0 -0 -1 -0 -0 -0 -0 -0 -1 -1 -2 -2 -3 -3 -3 -4 -1 1 0 -1 0 -1 -1 -0 1 0 -0 0 1 2 3 1 -2 1 -0 -4 -7 -8 -8 -8 -9 -9 -8 -9 -9 -9 -10 -10 -11 -11 -12 -12 -12 -12
-0 -0 -0 -0 -1 -1 -1 -2 -3 -4 -8 -5 -5 -4 -3 -3 -4 -4 -2 -2 -3 -2 -2 0 1 1 -0 0 1 1 -1 -2 -1 -0 -3 -6 -8 -8 -8 -8 -9 -10 -10 -11 -11 -11 -12 -12 -12 -12 -12 -12 -12 -12
-1 -6 -5 -1 -0 -1 -3 -4 -4 -7 -8 -7 -7 -4 -5 -6 -6 -5 -4 -3 -3 -3 -2 0 -1 -2 -1 -2 -3 -2 -2 -2 -4 -3 -6 -9 -9 -9 -9 -9 -10 -10 -11 -11 -11 -12 -12 -12 -13 -13 -13 -13 -13 -13
-5 -3 -1 -6 -9 -8 -6 -5 -6 -11 -8 -8 -7 -5 -6 -4 -4 -5 -4 -4 -5 -4 -1 -1 -1 -1 -3 -4 -4 -4 -4 -3 -6 -7 -8 -9 -9 -10 -10 -11 -11 -11 -11 -11 -12 -12 -12 -12 -12 -13 -13 -13 -13 -13
-2 -8 -7 -1 -2 -5 -7 -10 -9 -9 -8 -8 -7 -7 -6 -7 -6 -6 -6 -5 -5 -2 -2 -3 -2 -4 -6 -5 -6 -7 -6 -7 -9 -9 -10 -10 -10 -11 -11 -11 -11 -11 -12 -12 -12 -12 -12 -13 -13 -13 -14 -14 -14 -14
-2 -3 -6 -7 -7 -8 -10 -9 -9 -9 -8 -7 -8 -7 -8 -7 -6 -7 -6 -6 -5 -5 -5 -5 -8 -6 -5 -5 -7 -9 -10 -10 -10 -10 -10 -11 -11 -11 -11 -11 -11 -12 -12 -12 -12 -12 -12 -13 -13 -13 -14 -14 -14 -15
-3 -3 -5 -6 -6 -7 -8 -8 -9 -9 -8 -8 -7 -7 -7 -8 -8 -7 -8 -8 -8 -8 -8 -9 -8 -8 -8 -9 -9 -10 -10 -10 -10 -10 -11 -12 -12 -12 -12 -12 -12 -12 -12 -12 -13 -13 -13 -14 -13 -13 -14 -14 -15 -15
-4 -4 -7 -8 -7 -8 -9 -8 -9 -9 -8 -8 -8 -9 -9 -9 -8 -8 -8 -9 -10 -10 -10 -10 -9 -9 -9 -9 -9 -10 -10 -10 -10 -10 -10 -11 -12 -12 -12 -12 -12 -13 -13 -13 -13 -13 -13 -14 -15 -15 -15 -15 -15 -15
-4 -4 -6 -6 -6 -7 -8 -9 -9 -9 -9 -9 -10 -10 -9 -9 -9 -9 -10 -11 -11 -11 -10 -10 -10 -10 -10 -9 -9 -9 -10 -9 -9 -9 -10 -11 -12 -12 -12 -13 -13 -13 -12 -13 -13 -15 -14 -15 -16 -16 -16 -17 -17 -18
-6 -6 -5 -7 -7 -8 -8 -8 -8 -9 -8 -9 -10 -9 -8 -8 -9 -11 -12 -12 -12 -10 -10 -10 -11 -11 -11 -11 -11 -11 -12 -12 -12 -12 -12 -12 -12 -12 -13 -13 -13 -14 -14 -14 -15 -15 -15 -16 -17 -17 -17 -18 -18 -18
-9 -8 -8 -7 -6 -7 -6 -6 -7 -7 -7 -9 -10 -10 -10 -10 -12 -12 -12 -12 -12 -11 -11 -12 -11 -12 -12 -12 -12 -12 -12 -12 -12 -12 -13 -13 -14 -14 -15 -15 -15 -15 -15 -16 -16 -16 -17 -19 -20 -18 -18 -18 -18 -19
-11 -11 -8 -5 -6 -5 -6 -8 -9 -9 -9 -9 -10 -9 -10 -10 -11 -11 -11 -12 -12 -12 -12 -12 -12 -12 -12 -13 -13 -14 -15 -15 -15 -15 -15 -16 -16 -16 -16 -16 -16 -16 -17 -17 -17 -17 -18 -18 -19 -18 -19 -18 -19 -18
-9 -9 -6 -6 -7 -7 -7 -7 -8 -8 -8 -9 -9 -9 -10 -11 -10 -10 -11 -12 -12 -11 -12 -12 -13 -12 -12 -13 -14 -14 -15 -15 -15 -16 -16 -16 -16 -17 -17 -17 -17 -18 -18 -17 -17 -18 -19 -19 -19 -19 -19 -19 -19 -20
-8 -9 -8 -7 -8 -7 -8 -7 -7 -8 -9 -9 -10 -11 -10 -10 -10 -10 -12 -11 -11 -11 -11 -11 -12 -13 -13 -14 -14 -14 -14 -15 -16 -16 -16 -17 -16 -15 -16 -16 -17 -17 -19 -18 -18 -18 -19 -19 -19 -21 -20 -22 -25 -23
-8 -8 -11 -11 -10 -10 -8 -9 -10 -9 -9 -9 -10 -11 -11 -10 -11 -12 -12 -12 -12 -12 -12 -12 -13 -13 -13 -14 -15 -17 -20 -23 -19 -20 -24 -25 -26 -26 -18 -17 -17 -18 -21 -23 -20 -19 -19 -19 -20 -20 -20 -20 -20 -21
-12 -12 -11 -11 -12 -12 -10 -10 -10 -10 -10 -13 -13 -12 -12 -12 -12 -11 -12 -13 -13 -13 -14 -14 -14 -14 -14 -16 -20 -22 -26 -26 -26 -25 -24 -22 -25 -25 -28 -29 -29 -28 -25 -25 -24 -26 -21 -20 -20 -20 -21 -21 -21 -21
-12 -13 -15 -15 -14 -14 -13 -12 -12 -14 -14 -13 -12 -13 -14 -14 -13 -14 -14 -14 -14 -14 -14 -15 -17 -18 -19 -19 -21 -19 -19 -17 -16 -18 -18 -17 -17 -18 -25 -24 -23 -25 -23 -20 -25 -27 -24 -25 -23 -22 -21 -21 -22 -23
-12 -13 -15 -15 -14 -13 -14 -13 -14 -14 -14 -14 -15 -15 -15 -15 -16 -15 -15 -14 -14 -14 -15 -15 -15 -15 -15 -16 -23 -25 -26 -26 -26 -20 -17 -17 -18 -21 -23 -23 -23 -26 -27 -23 -22 -21 -24 -25 -23 -23 -22 -21 -22 -21
-13 -13 -14 -15 -14 -14 -14 -14 -14 -13 -13 -13 -13 -14 -14 -15 -16 -15 -15 -15 -15 -15 -15 -16 -17 -16 -17 -18 -16 -16 -17 -25 -27 -28 -28 -28 -27 -25 -27 -28 -28 -28 -28 -28 -28 -28 -27 -26 -22 -21 -22 -22 -25 -28
-13 -14 -15 -14 -14 -14 -13 -12 -13 -13 -13 -13 -13 -13 -13 -13 -13 -15 -15 -15 -16 -15 -15 -16 -16 -16 -23 -27 -29 -29 -29 -29 -28 -28 -28 -27 -27 -28 -28 -28 -28 -28 -28 -28 -28 -27 -27 -27 -27 -28 -29 -30 -31 -31
-13 -14 -14 -14 -13 -13 -13 -12 -14 -13 -13 -13 -13 -13 -13 -13 -14 -16 -16 -16 -15 -15 -16 -16 -18 -21 -25 -26 -27 -28 -28 -28 -28 -28 -28 -27 -27 -27 -28 -28 -28 -28 -28 -27 -28 -28 -29 -30 -30 -31 -31 -31 -31 -31

GFSWCAN_850_dewp_078.txt.gz
Dewpoint
-5 -5 -4 -4 -4 -4 -3 -3 -2 -2 -2 -1 -1 -2 -2 -2 -1 -2 -4 -3 -3 -2 -4 -5 -5 -5 -4 -3 0 1 2 3 3 3 2 -1 1 -0 -1 -2 2 1 3 4 3 3 3 -4 -3 2 4 2 1 1
-6 -4 -4 -5 -4 -4 -4 -3 -2 -1 -1 -1 -1 -1 -3 -2 -1 -2 -2 -3 -3 -2 -4 -3 -4 -5 -5 -3 1 1 1 1 -0 0 -1 -0 2 3 -1 0 0 5 -0 1 -1 -0 -3 -2 2 1 1 1 1 1
-4 -5 -5 -4 -3 -3 -3 -1 -1 -1 -1 -1 -1 -1 -2 -2 -1 -2 -4 -4 -4 -2 -2 -2 -4 -3 -3 -5 -3 0 1 0 1 2 3 4 4 1 2 -1 -2 -0 0 3 2 -2 -0 4 3 1 0 0 0 0
-4 -4 -3 -2 -2 -1 -2 -2 -1 -1 -1 -1 -1 -0 -2 -2 -1 -1 -2 -3 -3 -2 -2 -4 -3 -3 -5 -3 -2 -3 -0 -1 -0 0 1 2 2 1 2 -1 -1 -2 2 2 4 3 2 3 3 1 1 1 0 -0
-3 -2 -1 -1 -1 -1 -0 -0 -1 -0 -1 -1 -1 -0 -1 -0 -1 -1 -2 -2 -2 -2 -1 -3 -5 -5 -3 -4 -4 -2 -1 1 1 2 2 2 -1 1 0 0 -1 -1 2 4 5 2 3 2 1 0 -0 -0 -0 -1
-1 -1 -1 -2 -1 -1 -1 -0 -0 -1 -1 -2 -1 -0 -1 -1 -1 -1 -1 -2 -1 -2 -1 2 -0 -5 -5 -3 -4 -2 0 1 1 1 1 1 0 0 2 2 2 1 -1 -1 -1 -2 -0 1 -1 -1 -1 -1 -1 -2
-1 -1 -1 -1 -1 -0 -0 -0 -0 -0 -1 -1 -1 -0 -0 -1 -1 -1 -1 -2 -2 -1 -0 -0 -1 -2 -4 -1 -1 -3 -2 1 1 0 1 2 0 2 3 1 1 -0 -1 -2 -3 -2 -1 -1 -2 -3 -3 -2 -3 -4
-1 -1 -1 -1 -1 -1 -0 -1 -1 -0 -0 -1 -1 -0 -0 -1 -1 -1 -1 -2 -2 -1 -0 1 2 0 -1 1 1 1 1 1 1 1 1 1 -1 0 3 -2 -4 -4 -3 -3 -4 -3 -2 -2 -3 -4 -4 -4 -4 -5
-2 -2 -1 -1 -1 -0 -0 -0 -1 0 -1 -0 -0 -0 -1 -1 -1 -1 -1 -1 -1 -1 -1 1 2 2 0 1 1 1 1 1 1 2 1 -0 0 1 -2 -4 -4 -5 -5 -5 -5 -3 -4 -3 -4 -4 -5 -5 -6 -7
-1 -0 -1 -1 -0 -1 -0 -0 -0 -1 -0 -0 -1 -1 -2 -1 -1 -1 -0 -1 -1 -0 0 0 -1 2 -1 1 2 1 2 2 2 1 1 1 -2 -5 -6 -6 -6 -6 -6 -6 -5 -5 -5 -5 -5 -6 -7 -8 -8 -9
-0 -1 -1 -1 -0 -1 -1 -0 -0 -0 -0 -1 -1 -1 -1 -1 -1 -1 -1 -0 -1 1 -1 -1 1 1 1 1 1 1 2 2 2 3 2 2 -2 -5 -6 -7 -7 -7 -7 -7 -6 -6 -6 -6 -6 -7 -8 -9 -10 -10
-0 -1 -0 -1 -1 -1 -0 -1 -1 -1 -1 -0 -1 -1 -1 -1 -1 1 1 1 1 -0 0 -0 1 1 1 1 1 0 2 2 2 1 3 -1 -4 -6 -7 -8 -7 -7 -7 -7 -8 -8 -8 -8 -8 -9 -10 -11 -11 -12
-0 -0 -0 -1 -1 -1 -1 -1 -1 -1 -1 -2 -1 -1 -0 -1 1 1 1 1 0 -0 -0 0 1 0 1 1 1 2 2 2 -1 2 -1 -4 -7 -8 -8 -8 -9 -9 -9 -9 -9 -10 -10 -11 -11 -11 -12 -12 -12 -12
-0 -1 -1 -0 -0 -1 -1 -1 -1 -2 -3 -4 -3 -3 -2 -3 -3 -3 -2 -1 -2 -1 -0 1 0 1 -0 1 1 2 -1 -1 1 1 -3 -6 -8 -7 -8 -8 -9 -10 -11 -11 -11 -12 -12 -12 -12 -12 -13 -12 -12 -12
-2 -1 -0 -1 -1 -2 -2 -4 -6 -9 -5 -6 -6 -3 -5 -5 -4 -3 -3 -2 -3 -2 -0 1 1 -1 -0 -0 -1 -2 -1 -1 -3 -4 -6 -8 -8 -8 -8 -9 -10 -10 -11 -11 -12 -12 -12 -12 -13 -13 -13 -13 -13 -13
-2 -3 -4 -1 -3 -2 -3 -4 -6 -8 -6 -7 -6 -4 -4 -4 -3 -4 -3 -3 -3 -2 -1 0 -0 -2 -3 -3 -3 -3 -2 -3 -5 -7 -8 -9 -9 -10 -10 -10 -11 -11 -11 -11 -12 -12 -12 -13 -13 -13 -13 -13 -13 -13
-4 -4 -2 -3 -5 -8 -8 -8 -9 -6 -7 -7 -6 -6 -4 -5 -5 -5 -4 -4 -3 -2 -1 -2 -3 -3 -5 -4 -5 -7 -6 -7 -8 -9 -9 -10 -10 -11 -10 -10 -11 -11 -11 -11 -11 -12 -12 -12 -12 -13 -13 -14 -14 -14
-2 -7 -4 -4 -7 -8 -9 -7 -8 -8 -7 -6 -6 -6 -6 -5 -5 -5 -5 -5 -3 -4 -5 -5 -7 -5 -5 -4 -6 -8 -8 -8 -9 -9 -10 -10 -10 -10 -10 -11 -11 -11 -11 -12 -12 -12 -12 -13 -13 -13 -14 -14 -14 -14
-2 -4 -5 -4 -5 -6 -7 -7 -8 -8 -7 -6 -6 -6 -6 -6 -7 -6 -7 -7 -7 -7 -7 -8 -7 -7 -7 -8 -8 -9 -9 -9 -9 -10 -11 -11 -11 -11 -11 -12 -12 -12 -12 -12 -12 -12 -13 -13 -13 -13 -13 -14 -14 -14
-3 -3 -7 -5 -5 -7 -7 -7 -7 -7 -6 -7 -7 -8 -7 -7 -6 -7 -8 -9 -9 -9 -9 -8 -7 -7 -7 -7 -8 -8 -9 -9 -10 -10 -10 -11 -11 -11 -11 -11 -12 -12 -12 -13 -13 -13 -13 -14 -15 -15 -14 -14 -14 -15
-5 -7 -6 -5 -6 -7 -7 -8 -8 -8 -7 -8 -7 -8 -7 -7 -8 -8 -9 -10 -10 -9 -9 -9 -9 -9 -9 -9 -9 -9 -9 -8 -9 -8 -10 -11 -11 -11 -12 -12 -12 -12 -12 -13 -13 -14 -14 -14 -15 -15 -15 -16 -16 -17
-3 -4 -5 -8 -6 -7 -7 -7 -8 -7 -7 -8 -7 -7 -6 -7 -9 -10 -11 -11 -11 -8 -9 -9 -10 -10 -10 -10 -11 -11 -11 -11 -11 -11 -12 -12 -11 -11 -12 -12 -12 -12 -13 -13 -13 -14 -14 -15 -16 -16 -16 -17 -17 -17
-4 -4 -6 -7 -6 -7 -6 -5 -6 -6 -6 -8 -9 -8 -8 -9 -11 -11 -11 -12 -10 -10 -11 -11 -11 -11 -11 -12 -12 -12 -12 -12 -12 -12 -12 -12 -13 -13 -14 -14 -14 -14 -14 -15 -15 -15 -16 -19 -18 -17 -18 -17 -17 -19
-10 -10 -4 -4 -6 -6 -5 -7 -8 -8 -8 -8 -9 -8 -8 -9 -10 -11 -10 -11 -11 -11 -11 -11 -11 -11 -12 -12 -13 -14 -14 -14 -14 -14 -14 -14 -15 -15 -15 -15 -15 -15 -16 -16 -16 -16 -16 -17 -19 -17 -18 -17 -18 -17
-8 -8 -5 -5 -6 -6 -7 -7 -8 -8 -7 -8 -8 -8 -9 -9 -9 -9 -10 -11 -10 -10 -11 -11 -11 -10 -11 -12 -13 -14 -14 -14 -14 -15 -15 -15 -15 -15 -16 -17 -16 -17 -17 -16 -16 -17 -17 -18 -18 -18 -18 -18 -18 -18
-7 -8 -6 -6 -6 -7 -7 -6 -7 -7 -8 -8 -9 -10 -9 -9 -9 -9 -10 -10 -10 -11 -10 -10 -11 -12 -12 -13 -13 -13 -14 -14 -15 -15 -15 -16 -15 -15 -14 -15 -15 -16 -17 -19 -17 -17 -17 -19 -18 -20 -19 -18 -20 -24
-7 -8 -10 -10 -9 -8 -7 -8 -9 -8 -8 -8 -9 -9 -9 -9 -10 -11 -10 -10 -10 -11 -11 -11 -11 -11 -12 -13 -14 -15 -18 -22 -18 -18 -22 -24 -25 -24 -19 -16 -16 -17 -19 -22 -19 -18 -18 -18 -19 -19 -19 -19 -19 -19
-11 -11 -9 -10 -10 -10 -9 -9 -9 -9 -10 -12 -12 -10 -10 -10 -10 -10 -11 -11 -12 -12 -12 -13 -13 -13 -13 -14 -15 -19 -25 -27 -24 -20 -18 -17 -17 -21 -24 -27 -28 -26 -26 -25 -24 -22 -20 -19 -19 -19 -19 -20 -20 -20
-11 -12 -14 -13 -13 -13 -12 -11 -11 -13 -13 -12 -11 -12 -13 -12 -12 -12 -12 -13 -13 -13 -14 -14 -15 -16 -16 -16 -15 -16 -15 -16 -15 -17 -17 -16 -16 -17 -18 -22 -20 -23 -20 -20 -20 -22 -24 -25 -22 -22 -22 -22 -21 -21
-11 -12 -13 -14 -13 -13 -13 -12 -12 -12 -13 -13 -14 -14 -14 -13 -13 -13 -13 -13 -13 -13 -14 -14 -14 -14 -15 -15 -17 -18 -23 -26 -27 -22 -16 -16 -17 -19 -21 -20 -20 -20 -23 -20 -20 -20 -20 -21 -20 -21 -20 -20 -21 -21
-11 -11 -13 -14 -13 -13 -13 -12 -12 -11 -12 -12 -13 -14 -14 -15 -15 -14 -14 -14 -14 -15 -15 -15 -15 -15 -15 -15 -15 -15 -16 -20 -28 -29 -28 -27 -24 -20 -23 -27 -28 -27 -25 -24 -25 -24 -23 -25 -21 -21 -21 -21 -22 -25
-11 -12 -14 -14 -13 -12 -12 -10 -11 -11 -11 -12 -12 -12 -12 -12 -13 -15 -15 -15 -14 -14 -14 -14 -15 -16 -21 -28 -29 -29 -29 -29 -29 -28 -28 -27 -24 -27 -28 -28 -28 -27 -27 -27 -26 -26 -25 -26 -27 -27 -27 -25 -27 -29
-12 -12 -13 -13 -13 -13 -12 -11 -12 -12 -12 -12 -12 -11 -12 -12 -13 -15 -15 -15 -14 -15 -15 -15 -16 -19 -25 -26 -25 -26 -28 -28 -28 -28 -28 -28 -27 -27 -28 -27 -28 -28 -28 -27 -27 -27 -27 -28 -29 -29 -29 -28 -27 -26

GFSWCAN_850_dewp_084.txt.gz
Dewpoint
-6 -6 -6 -5 -5 -6 -6 -7 -5 -5 -5 -4 -4 -2 -2 -2 -1 -1 -2 -2 -4 -4 -4 -4 -3 -3 -3 -2 -0 -1 -2 -1 1 0 0 0 -0 -1 0 0 1 3 3 2 2 2 2 3 3 4 4 2 2 2
-6 -7 -5 -5 -6 -7 -8 -5 -5 -5 -4 -5 -5 -4 -2 -1 -1 -1 -1 -2 -3 -4 -4 -4 -4 -5 -6 -6 -4 -2 -0 -0 1 2 0 1 0 -1 1 2 2 4 4 3 1 0 3 4 4 3 3 2 1 1
-7 -5 -5 -6 -6 -7 -6 -4 -4 -3 -3 -4 -4 -2 -2 -2 -1 -1 -1 -1 -2 -2 -3 -5 -6 -7 -4 -3 -5 -2 -1 -1 -0 -1 1 0 1 2 2 2 4 3 2 4 3 3 3 3 2 1 1 0 1 1
-6 -6 -6 -9 -9 -5 -3 -2 -2 -2 -2 -2 -2 -1 -1 -1 -1 -1 -1 -1 -2 -2 -4 -5 -7 -8 -9 -9 -8 -3 -2 -2 -2 0 -0 0 0 1 2 2 3 3 3 3 4 3 2 2 1 1 -1 -0 0 -1
-6 -6 -8 -9 -4 -3 -2 -1 -1 -1 -3 -3 -2 -1 -1 -1 -1 -1 -1 -1 -2 -3 -4 -4 -5 -9 -9 -7 -5 -3 -3 -2 -1 1 -1 -0 0 2 2 2 2 0 2 3 2 -0 1 -1 -0 0 0 -1 -2 -2
-6 -10 -9 -4 -3 -2 -1 -1 -1 -2 -2 -2 -2 -1 -1 -1 -1 -2 -2 -2 -2 -2 -3 -3 -4 -6 -4 -4 -5 -3 -5 -2 -1 0 -0 1 -0 1 2 3 -1 -1 -1 -1 0 -0 -1 -2 -2 -2 -2 -3 -4 -4
-10 -7 -4 -3 -2 -2 -2 -2 -1 -1 -1 -2 -1 -1 -1 -0 -1 -2 -3 -3 -2 -2 -3 -2 -2 -3 -2 -3 -3 -3 -5 -1 -0 1 1 0 0 1 1 1 -2 -3 -3 -3 -1 0 -2 -2 -4 -4 -4 -5 -5 -6
-6 -4 -3 -2 -3 -3 -2 -2 -2 -2 -1 -1 -1 -0 -1 -1 -1 -2 -0 -1 -2 -2 -2 -1 -3 -0 -2 -1 0 -2 -2 -1 -0 0 1 1 1 -0 -1 -3 -5 -5 -4 -4 -3 -3 -4 -4 -4 -5 -5 -6 -6 -8
-4 -2 -2 -3 -2 -1 -1 -1 -1 -1 -1 -1 -1 -1 -0 -1 -1 -2 -1 -2 -2 -2 -2 -2 -3 -1 -1 0 0 -0 -2 0 -1 0 0 0 -2 -4 -5 -6 -6 -6 -6 -6 -5 -5 -5 -5 -6 -7 -7 -7 -8 -9
-2 -2 -1 -1 -1 -1 -1 -1 -2 -1 -1 -1 -1 -0 -2 -1 -1 -1 -1 -2 -1 -1 -1 -1 -1 0 0 1 0 0 -0 0 0 -0 0 -2 -4 -6 -6 -6 -7 -7 -7 -7 -6 -6 -6 -7 -8 -8 -9 -9 -9 -10
-2 -1 -1 -1 -1 -2 -1 -1 -1 -1 -1 -1 -1 -1 -1 -1 -1 -1 -2 -2 -1 -2 -2 -1 -1 1 1 0 -0 -0 1 0 1 -0 1 -2 -4 -6 -7 -8 -8 -8 -8 -8 -8 -8 -7 -8 -9 -10 -10 -11 -11 -11
-1 -1 -1 -1 -1 -1 -0 -1 -0 -0 -1 -1 -1 -1 -1 -1 -1 -1 -1 -1 -2 -2 -1 -2 1 1 0 0 0 0 -1 1 0 1 -2 -5 -6 -7 -8 -9 -10 -9 -10 -10 -10 -10 -10 -10 -10 -11 -11 -12 -12 -12
-1 -0 -0 -1 -1 -1 -1 -1 -1 -2 -1 -1 -1 -1 -1 -2 -1 -1 -0 -0 -1 -0 1 1 -0 -0 0 0 0 -0 -1 0 -0 -3 -5 -6 -7 -8 -9 -10 -11 -11 -11 -11 -11 -11 -11 -11 -11 -12 -12 -12 -12 -12
-1 -1 -1 -1 -1 -1 -1 -1 -1 -1 -2 -2 -3 -6 -3 -6 -6 -6 -3 -2 -2 -1 0 -0 -0 -0 -0 -1 -2 0 -3 -2 -2 -6 -7 -8 -8 -8 -9 -11 -12 -12 -12 -12 -12 -12 -12 -12 -12 -12 -12 -12 -12 -13
-1 -1 -1 -1 -1 -1 -1 -1 -2 -4 -6 -6 -6 -6 -8 -6 -4 -3 -2 -2 -2 -0 0 -1 -2 -2 -3 -3 -3 -4 -3 -4 -5 -8 -11 -8 -9 -9 -10 -11 -11 -11 -12 -12 -12 -13 -13 -13 -13 -13 -13 -13 -13 -13
-2 -1 -1 -1 -1 -1 -1 -1 -5 -9 -8 -7 -6 -5 -4 -6 -5 -4 -3 -3 -2 -0 -1 -2 -3 -5 -5 -5 -6 -7 -4 -7 -10 -12 -9 -9 -10 -10 -10 -11 -11 -11 -12 -12 -12 -12 -13 -13 -13 -13 -13 -13 -13 -14
-2 -1 -1 -1 -4 -4 -3 -5 -7 -7 -7 -7 -6 -5 -5 -5 -5 -5 -5 -4 -2 -1 -4 -5 -4 -3 -4 -7 -9 -10 -12 -13 -9 -9 -9 -10 -11 -11 -11 -11 -11 -12 -12 -12 -13 -13 -13 -13 -13 -13 -13 -14 -14 -14
-5 -6 -5 -3 -4 -8 -5 -7 -8 -8 -6 -7 -7 -6 -6 -6 -6 -6 -6 -3 -3 -6 -7 -6 -8 -9 -10 -9 -11 -11 -9 -9 -10 -10 -10 -11 -11 -11 -11 -12 -12 -12 -12 -12 -12 -13 -13 -13 -13 -13 -14 -14 -15 -15
-5 -6 -7 -7 -7 -8 -7 -8 -9 -6 -6 -7 -7 -7 -7 -7 -8 -8 -7 -9 -8 -9 -10 -9 -10 -10 -11 -9 -10 -9 -9 -10 -10 -10 -11 -11 -11 -11 -12 -12 -12 -12 -12 -12 -12 -12 -12 -12 -13 -13 -13 -14 -14 -15
-3 -5 -6 -7 -8 -8 -7 -7 -7 -7 -6 -6 -7 -6 -6 -7 -8 -8 -9 -10 -10 -11 -10 -10 -10 -8 -8 -9 -11 -11 -11 -11 -12 -12 -11 -11 -11 -12 -12 -12 -12 -12 -12 -12 -13 -13 -13 -13 -13 -14 -14 -14 -14 -15
-6 -5 -7 -8 -8 -7 -8 -8 -7 -7 -7 -7 -7 -7 -8 -9 -10 -12 -12 -11 -11 -9 -10 -10 -10 -9 -9 -9 -10 -11 -11 -12 -13 -13 -12 -12 -12 -12 -12 -12 -12 -12 -12 -13 -13 -13 -14 -14 -15 -16 -16 -16 -16 -17
-5 -6 -8 -9 -8 -8 -8 -8 -8 -7 -6 -7 -6 -6 -7 -8 -10 -11 -12 -11 -10 -9 -10 -10 -10 -10 -10 -10 -10 -10 -10 -9 -10 -11 -11 -12 -12 -13 -13 -12 -13 -13 -13 -13 -14 -14 -15 -15 -15 -16 -17 -18 -18 -18
-7 -7 -8 -8 -8 -8 -7 -5 -6 -7 -7 -6 -7 -6 -8 -10 -11 -12 -11 -11 -11 -10 -11 -11 -12 -12 -11 -11 -12 -12 -12 -11 -11 -12 -12 -12 -12 -13 -14 -14 -13 -14 -14 -15 -16 -16 -16 -17 -17 -17 -17 -18 -18 -18
-9 -8 -6 -7 -7 -6 -5 -7 -8 -7 -6 -7 -7 -7 -9 -10 -12 -12 -11 -10 -11 -11 -12 -12 -12 -12 -12 -12 -12 -12 -13 -14 -14 -14 -14 -14 -15 -16 -16 -17 -18 -18 -16 -16 -17 -17 -18 -18 -19 -18 -18 -18 -18 -18
-11 -8 -7 -9 -6 -9 -10 -10 -8 -8 -9 -9 -9 -10 -11 -9 -11 -12 -14 -11 -11 -12 -13 -12 -13 -13 -14 -14 -14 -14 -14 -13 -14 -15 -14 -14 -16 -15 -16 -16 -16 -16 -17 -18 -17 -17 -17 -18 -18 -18 -18 -18 -18 -18
-11 -9 -8 -9 -8 -9 -9 -9 -10 -9 -10 -11 -11 -9 -9 -12 -13 -12 -11 -11 -11 -11 -11 -11 -11 -11 -13 -15 -15 -14 -14 -14 -15 -15 -18 -18 -17 -14 -15 -15 -15 -16 -17 -17 -18 -17 -17 -18 -18 -19 -20 -20 -19 -19
-11 -12 -9 -8 -7 -8 -9 -9 -9 -10 -12 -11 -12 -13 -16 -16 -15 -11 -10 -11 -11 -12 -10 -11 -12 -13 -13 -13 -13 -14 -16 -15 -14 -15 -26 -25 -22 -25 -25 -20 -16 -16 -17 -18 -24 -22 -18 -18 -18 -19 -19 -20 -20 -20
-10 -9 -11 -11 -12 -11 -14 -13 -14 -13 -14 -10 -13 -15 -16 -16 -13 -11 -11 -11 -13 -13 -11 -11 -10 -12 -13 -14 -16 -21 -23 -23 -25 -24 -22 -19 -18 -19 -21 -27 -28 -27 -25 -24 -24 -25 -25 -22 -19 -19 -19 -20 -20 -20
-12 -13 -14 -16 -14 -13 -12 -14 -14 -12 -12 -11 -17 -17 -13 -12 -12 -11 -11 -11 -11 -12 -12 -12 -13 -13 -15 -18 -21 -22 -21 -20 -19 -20 -20 -17 -18 -18 -20 -23 -25 -26 -27 -26 -24 -22 -22 -22 -23 -24 -23 -22 -21 -21
-11 -14 -15 -14 -17 -15 -12 -12 -13 -12 -12 -13 -13 -13 -13 -13 -12 -12 -12 -12 -13 -13 -13 -14 -15 -17 -18 -21 -26 -27 -28 -28 -23 -21 -20 -20 -19 -22 -25 -25 -26 -28 -28 -27 -27 -27 -25 -24 -25 -24 -22 -22 -23 -23
-12 -14 -14 -13 -13 -12 -13 -13 -14 -14 -14 -14 -15 -15 -14 -13 -13 -13 -13 -13 -14 -15 -16 -16 -16 -16 -17 -21 -21 -21 -22 -27 -29 -29 -29 -28 -27 -26 -26 -28 -28 -29 -28 -28 -28 -28 -28 -27 -27 -28 -28 -27 -28 -28
-13 -14 -14 -15 -12 -13 -12 -13 -14 -14 -14 -15 -15 -15 -15 -15 -15 -14 -14 -14 -14 -14 -15 -15 -15 -16 -18 -23 -26 -27 -27 -28 -29 -29 -28 -28 -28 -28 -29 -28 -28 -28 -28 -28 -29 -29 -29 -29 -28 -27 -26 -26 -26 -25
-14 -14 -14 -13 -12 -12 -11 -11 -12 -12 -12 -13 -12 -12 -13 -15 -15 -15 -15 -14 -14 -15 -16 -15 -15 -16 -23 -26 -25 -24 -26 -28 -28 -28 -29 -29 -29 -29 -29 -29 -28 -28 -29 -28 -27 -26 -25 -25 -25 -25 -25 -25 -25 -25

GFSWCAN_850_dewp_087.txt.gz
Dewpoint
-5 -6 -6 -7 -7 -5 -5 -5 -6 -7 -7 -5 -5 -5 -4 -2 -2 -1 -1 -2 -3 -4 -6 -4 -4 -5 -5 -2 -2 -3 -3 -2 0 1 0 0 -0 -1 0 -1 -0 1 2 2 2 3 2 3 3 2 3 3 2 3
-6 -6 -6 -7 -6 -4 -5 -6 -7 -9 -6 -5 -5 -5 -5 -3 -2 -2 -1 -2 -2 -3 -5 -3 -6 -6 -4 -5 -4 -3 -2 -1 -0 1 1 1 1 -1 1 1 2 1 1 3 1 1 3 2 2 3 3 3 2 2
-6 -6 -6 -8 -7 -5 -5 -7 -9 -7 -5 -4 -4 -4 -5 -5 -3 -2 -1 -1 -2 -2 -3 -4 -7 -8 -5 -6 -6 -5 -2 -3 -1 -1 -1 1 -0 0 1 1 2 2 1 2 4 4 3 2 1 1 -0 -1 -0 -0
-7 -7 -7 -6 -5 -6 -9 -9 -5 -3 -3 -3 -3 -4 -4 -4 -3 -1 -1 -1 -2 -2 -2 -5 -6 -7 -8 -8 -6 -6 -4 -3 -1 -1 -0 0 0 -0 1 1 2 2 1 3 2 2 1 0 0 -0 -0 -0 -1 -2
-7 -7 -7 -6 -6 -7 -8 -4 -3 -2 -1 -2 -2 -3 -3 -1 -1 -1 -1 -1 -2 -2 -4 -5 -6 -8 -8 -7 -7 -8 -6 -5 -1 -0 0 -0 -1 1 1 2 -0 -1 -0 1 1 -1 -1 -2 -1 -0 0 -0 -2 -3
-7 -8 -7 -6 -6 -9 -4 -3 -2 -1 -1 -3 -3 -3 -1 -1 -1 -1 -2 -2 -2 -2 -2 -5 -6 -6 -3 -8 -5 -7 -5 -1 -1 0 -0 -0 -0 1 -1 1 -2 -2 -2 -2 -1 -2 -2 -3 -3 -2 -2 -3 -4 -4
-8 -7 -6 -7 -9 -4 -3 -2 -2 -1 -2 -3 -2 -1 -1 -1 -1 -2 -3 -4 -2 -2 -3 -3 -3 -4 -2 -2 -3 -3 -4 -3 -2 0 -0 -1 -0 1 1 -0 -3 -3 -3 -3 -2 -2 -2 -3 -4 -5 -5 -5 -5 -5
-6 -7 -8 -7 -4 -3 -3 -2 -2 -1 -1 -2 -2 -1 -1 -1 -1 -2 -1 -2 -2 -2 -3 -3 -3 -2 -1 -1 -1 -3 -2 -1 -0 -0 0 1 -0 -1 -2 -4 -5 -5 -4 -5 -4 -4 -4 -4 -5 -5 -5 -6 -6 -7
-7 -8 -7 -4 -3 -3 -3 -2 -2 -2 -2 -2 -1 -1 -1 -1 -2 -1 -1 -1 -2 -3 -3 -2 -4 -3 -0 -0 0 -2 -2 -3 -2 -2 -1 -0 -1 -4 -5 -6 -6 -6 -6 -6 -5 -5 -5 -6 -6 -7 -8 -8 -8 -9
-9 -7 -4 -3 -2 -2 -2 -2 -2 -1 -2 -2 -1 -1 -2 -1 -1 -2 -2 -2 -2 -2 -1 -2 -4 -1 -0 -0 -0 -0 -1 -3 1 -1 -0 -3 -6 -6 -7 -7 -7 -8 -8 -8 -6 -7 -6 -7 -8 -9 -9 -9 -9 -10
-6 -3 -3 -2 -1 -1 -1 -1 -1 -1 -1 -1 -1 -1 -1 -1 -2 -2 -2 -2 -2 -1 -1 -2 -2 -1 -0 -0 -1 -1 -1 -0 0 -1 1 -3 -5 -7 -8 -8 -8 -8 -8 -9 -9 -8 -8 -8 -9 -10 -10 -11 -11 -11
-3 -1 -1 -1 -1 -2 -2 -2 -1 -1 -1 -1 -1 -1 -1 -1 -1 -1 -2 -2 -2 -2 -3 -2 -0 0 -0 -0 -0 -0 -0 0 0 -1 -3 -6 -7 -7 -8 -10 -10 -10 -10 -10 -10 -10 -10 -10 -10 -11 -11 -12 -12 -12
-1 -1 -1 -2 -2 -2 -1 -1 -1 -1 -1 -1 -1 -1 -1 -2 -1 -4 -2 -2 -2 -2 -1 0 -0 -0 -0 -0 -0 -2 -1 -1 -1 -4 -7 -8 -7 -8 -9 -11 -11 -11 -11 -11 -11 -12 -11 -11 -11 -12 -12 -12 -12 -12
-1 -1 -1 -1 -1 -1 -1 -1 -1 -1 -1 -2 -3 -4 -2 -8 -7 -6 -6 -3 -2 -2 -0 -1 -1 -1 -1 -2 -1 0 -2 -4 -4 -7 -8 -9 -9 -9 -10 -12 -12 -12 -12 -12 -12 -12 -12 -12 -12 -12 -13 -13 -13 -13
-1 -1 -1 -1 -1 -1 -1 -1 -1 -2 -5 -5 -7 -7 -8 -7 -5 -3 -2 -2 -1 -0 -1 -1 -2 -2 -4 -3 -5 -6 -4 -6 -6 -9 -12 -9 -9 -9 -11 -11 -12 -12 -13 -13 -13 -13 -13 -13 -13 -13 -13 -13 -13 -13
-1 -1 -1 -1 -1 -1 -1 -2 -5 -9 -8 -7 -6 -5 -5 -7 -5 -4 -3 -3 -1 -0 -2 -3 -4 -5 -5 -6 -7 -7 -4 -6 -10 -12 -9 -9 -9 -10 -11 -11 -12 -12 -12 -13 -13 -13 -13 -13 -13 -13 -13 -13 -13 -13
-2 -2 -2 -2 -2 -1 -2 -4 -9 -8 -7 -7 -7 -6 -6 -6 -6 -6 -5 -3 -2 -1 -4 -6 -6 -5 -6 -7 -8 -10 -12 -15 -11 -10 -10 -10 -11 -11 -11 -12 -12 -12 -12 -13 -13 -13 -13 -13 -13 -13 -13 -14 -14 -15
-2 -2 -2 -2 -2 -2 -1 -7 -9 -8 -7 -7 -7 -7 -7 -6 -6 -6 -5 -3 -5 -7 -7 -7 -9 -9 -10 -8 -12 -13 -10 -10 -10 -10 -10 -11 -11 -11 -12 -12 -12 -12 -12 -12 -12 -13 -13 -13 -13 -13 -14 -14 -14 -15
-3 -2 -2 -4 -5 -7 -7 -9 -9 -7 -6 -7 -7 -7 -7 -7 -7 -6 -8 -8 -8 -9 -11 -10 -10 -11 -13 -11 -11 -10 -10 -10 -10 -11 -11 -11 -12 -12 -12 -12 -12 -12 -13 -13 -13 -13 -13 -13 -13 -13 -14 -14 -15 -15
-5 -3 -4 -6 -8 -8 -6 -7 -8 -7 -7 -7 -7 -7 -7 -8 -8 -8 -9 -8 -8 -11 -11 -12 -12 -10 -9 -10 -10 -11 -11 -11 -12 -11 -11 -12 -12 -12 -12 -12 -12 -12 -12 -12 -13 -13 -13 -13 -13 -14 -15 -14 -14 -15
-6 -7 -8 -8 -8 -7 -6 -7 -7 -8 -8 -7 -7 -8 -8 -9 -11 -12 -12 -12 -11 -10 -11 -10 -10 -9 -11 -11 -12 -12 -12 -12 -13 -13 -13 -12 -12 -12 -12 -13 -12 -13 -13 -13 -14 -13 -14 -14 -15 -16 -16 -17 -17 -17
-6 -7 -9 -9 -8 -8 -8 -8 -8 -8 -7 -7 -6 -7 -8 -9 -11 -12 -13 -12 -10 -10 -11 -10 -9 -9 -10 -10 -11 -12 -12 -12 -12 -12 -12 -12 -13 -12 -12 -13 -13 -12 -13 -13 -14 -14 -15 -15 -16 -16 -16 -17 -19 -19
-6 -5 -6 -6 -8 -8 -8 -5 -6 -7 -8 -6 -6 -8 -10 -9 -12 -12 -11 -11 -11 -10 -10 -10 -10 -11 -11 -10 -10 -10 -10 -10 -11 -12 -12 -12 -13 -13 -13 -14 -14 -14 -14 -15 -15 -15 -16 -17 -18 -18 -17 -17 -18 -18
-4 -6 -7 -8 -6 -6 -5 -7 -7 -6 -6 -7 -8 -8 -10 -9 -12 -12 -12 -11 -11 -11 -11 -11 -11 -11 -12 -12 -13 -13 -13 -13 -13 -14 -14 -15 -15 -15 -16 -18 -18 -19 -19 -17 -16 -17 -18 -18 -19 -18 -18 -18 -18 -18
-9 -8 -8 -9 -7 -9 -10 -10 -8 -9 -9 -9 -10 -10 -10 -9 -13 -14 -13 -11 -11 -11 -12 -12 -12 -12 -12 -13 -13 -14 -14 -14 -15 -15 -14 -14 -14 -16 -16 -16 -16 -16 -17 -17 -17 -17 -17 -18 -18 -19 -18 -19 -19 -19
-11 -9 -9 -10 -9 -9 -9 -9 -10 -10 -11 -11 -12 -9 -9 -15 -15 -14 -12 -12 -12 -12 -12 -13 -13 -14 -14 -14 -15 -14 -14 -14 -15 -15 -16 -17 -16 -15 -15 -15 -15 -15 -16 -16 -17 -19 -20 -18 -18 -18 -19 -20 -19 -19
-12 -12 -8 -9 -7 -8 -10 -9 -10 -11 -12 -12 -11 -14 -16 -17 -16 -13 -11 -11 -12 -13 -12 -12 -12 -12 -14 -15 -15 -15 -15 -15 -15 -15 -17 -27 -25 -23 -25 -24 -17 -17 -18 -18 -21 -24 -25 -20 -19 -19 -19 -19 -19 -20
-10 -11 -10 -12 -12 -12 -15 -14 -14 -14 -14 -11 -13 -17 -16 -16 -14 -11 -11 -12 -12 -11 -11 -11 -11 -12 -13 -13 -13 -14 -17 -17 -17 -22 -24 -21 -19 -19 -20 -27 -28 -28 -27 -26 -25 -24 -24 -24 -24 -21 -20 -20 -20 -20
-13 -14 -15 -16 -14 -13 -13 -15 -14 -12 -12 -13 -18 -18 -13 -13 -12 -11 -11 -11 -12 -13 -12 -11 -11 -12 -13 -15 -19 -22 -24 -24 -22 -20 -21 -21 -18 -20 -22 -26 -27 -27 -27 -27 -25 -22 -22 -22 -22 -22 -23 -23 -23 -22
-12 -15 -15 -14 -16 -15 -14 -14 -13 -13 -12 -14 -14 -14 -14 -14 -12 -11 -11 -11 -11 -12 -12 -12 -13 -14 -17 -19 -21 -24 -28 -29 -29 -26 -23 -23 -21 -23 -26 -26 -28 -28 -29 -29 -28 -28 -26 -25 -25 -26 -25 -24 -23 -24
-14 -15 -14 -13 -14 -14 -14 -14 -14 -14 -14 -14 -14 -15 -14 -14 -13 -13 -13 -13 -13 -13 -13 -14 -16 -18 -19 -23 -23 -22 -24 -27 -29 -29 -29 -29 -28 -28 -28 -29 -29 -29 -29 -29 -28 -28 -28 -28 -28 -28 -29 -29 -28 -27
-15 -14 -15 -16 -13 -13 -13 -14 -14 -14 -15 -15 -14 -14 -15 -15 -15 -14 -14 -14 -14 -15 -15 -16 -16 -17 -19 -22 -26 -27 -26 -27 -29 -29 -29 -29 -29 -29 -29 -29 -29 -29 -28 -29 -29 -28 -27 -26 -26 -25 -25 -25 -25 -25
-13 -13 -13 -13 -13 -13 -13 -12 -13 -13 -14 -15 -14 -13 -14 -15 -15 -15 -14 -14 -14 -15 -15 -15 -16 -18 -23 -27 -25 -24 -24 -27 -29 -29 -29 -30 -30 -30 -29 -28 -28 -28 -28 -26 -25 -25 -25 -25 -25 -25 -25 -25 -25 -24